[{"header": {"dx": 0.06612293990616946, "dy": 0.0552356325346848, "nx": 98, "ny": 59, "la1": 35.046912555036876, "la2": 31.78801023549047, "lo1": -121.43107172385933, "lo2": -114.95102361305473, "refTime": "2026041703", "parameterCategory": 1, "parameterNumber": 2}, "data": [10.47, 10.76, 10.76, 10.47, 9.84, 9.82, 9.19, 7.95, 7.6, 6.95, 5.71, 5.01, 3.83, 2.17, 3.04, 2.24, 2.24, 2.24, 1.79, 1.79, 1.79, 1.79, 2.24, 1.86, 0.0, -2.6, -2.88, -2.29, -1.47, -1.35, -0.7, 0.0, 0.0, 0.0, 0.7, 1.49, 1.33, 2.3, 1.49, 1.41, 2.2, 3.11, 5.15, 6.64, 8.94, 10.9, 10.87, 8.14, 5.36, 5.34, 6.64, 7.03, 7.6, 8.14, 8.55, 9.08, 10.01, 10.01, 10.01, 10.01, 9.49, 9.08, 9.49, 9.33, 9.33, 9.58, 10.02, 10.02, 10.02, 10.16, 10.25, 10.25, 10.25, 9.36, 9.81, 10.16, 10.7, 11.62, 13.84, 13.77, 10.62, 6.07, 3.22, 2.68, 4.43, 5.72, 6.44, 6.07, 6.4, 8.0, 8.63, 8.88, 8.67, 8.05, 6.44, 4.93, 4.87, 5.81, 10.76, 10.76, 10.76, 10.47, 10.47, 9.84, 9.5, 8.56, 7.6, 6.67, 5.71, 5.06, 3.45, 2.6, 5.2, 4.77, 2.12, 2.24, 2.12, 2.12, 1.6, 1.6, 2.12, 1.58, 0.0, -2.2, -3.22, -2.88, -2.29, -1.47, -0.81, 0.0, 0.0, 0.0, 0.61, 1.33, 1.84, 2.07, 2.07, 2.07, 3.22, 4.22, 5.46, 6.88, 9.27, 10.29, 8.0, 4.02, 3.22, 4.84, 6.4, 7.35, 8.3, 8.67, 8.67, 9.49, 10.01, 10.01, 10.01, 10.01, 10.01, 9.49, 9.49, 9.75, 9.33, 9.83, 10.45, 10.93, 11.4, 11.52, 11.15, 10.25, 9.8, 9.81, 10.25, 11.15, 11.18, 11.62, 13.84, 13.77, 10.62, 6.07, 3.22, 2.68, 4.43, 5.72, 6.44, 6.07, 6.4, 8.0, 8.63, 8.88, 8.67, 8.05, 6.44, 4.93, 4.87, 5.81, 10.76, 10.76, 10.76, 10.77, 10.47, 9.84, 9.5, 8.87, 7.93, 6.97, 6.01, 5.06, 3.45, 3.32, 3.51, 3.95, 2.68, 2.17, 2.12, 2.0, 2.23, 0.8, 1.0, 0.0, -0.76, -2.3, -3.07, -2.4, -2.4, -2.29, -1.6, -1.35, -0.7, 0.0, 0.61, 1.4, 2.07, 3.07, 3.48, 3.72, 5.0, 5.86, 6.88, 6.95, 7.69, 6.94, 4.47, 3.45, 4.22, 4.8, 6.28, 7.21, 7.71, 8.4, 8.25, 9.33, 9.83, 10.25, 10.25, 10.25, 9.83, 9.33, 9.75, 9.83, 9.83, 10.25, 11.18, 11.84, 12.42, 12.05, 11.6, 10.7, 10.25, 10.25, 9.83, 11.18, 12.07, 12.96, 14.23, 13.21, 9.72, 6.07, 2.53, 1.49, 2.66, 4.36, 5.72, 6.44, 7.03, 8.67, 9.3, 8.68, 8.06, 6.44, 5.05, 4.24, 5.31, 5.81, 10.76, 10.76, 10.76, 10.77, 10.47, 10.13, 9.82, 9.19, 8.24, 7.3, 6.34, 5.41, 4.81, 2.8, 3.04, 3.51, 3.07, 3.04, 2.23, 2.23, 2.23, 1.9, 0.99, 0.0, -1.66, -3.22, -3.07, -2.3, -2.3, -1.55, -1.6, -2.2, -2.2, -0.96, 0.0, 2.0, 2.95, 4.11, 4.65, 4.56, 5.94, 6.32, 5.43, 4.93, 4.85, 4.92, 4.66, 4.8, 4.93, 5.59, 5.94, 7.42, 7.71, 8.14, 8.14, 8.63, 9.11, 9.58, 10.02, 9.54, 9.33, 9.33, 9.75, 9.75, 10.25, 10.93, 11.84, 12.35, 12.35, 11.89, 11.06, 9.36, 9.36, 9.83, 9.83, 11.15, 11.98, 14.11, 14.67, 12.3, 8.67, 5.59, 2.21, 0.87, 0.73, 2.4, 4.74, 6.39, 7.68, 9.3, 9.3, 8.03, 6.06, 4.46, 3.83, 4.66, 5.32, 5.81, 10.76, 10.76, 10.76, 10.77, 10.76, 10.13, 9.82, 9.19, 8.56, 7.6, 6.67, 6.01, 4.74, 2.86, 3.2, 3.74, 3.32, 2.8, 2.8, 2.21, 1.98, 1.49, 1.58, 1.0, -0.87, -4.11, -4.11, -2.95, -1.8, -0.79, -0.73, -1.6, -2.26, -1.49, 0.0, 1.18, 2.12, 4.22, 5.21, 4.83, 5.06, 4.4, 3.51, 4.02, 4.87, 5.16, 5.16, 5.16, 5.16, 5.59, 5.64, 6.98, 7.45, 7.45, 7.89, 8.36, 8.36, 8.8, 9.11, 9.11, 9.06, 8.82, 9.33, 9.83, 10.93, 11.52, 11.52, 11.52, 10.93, 10.75, 10.25, 9.58, 9.15, 8.91, 9.83, 10.52, 11.66, 13.05, 13.21, 12.33, 7.76, 4.15, 2.53, 0.7, 0.0, 0.76, 4.03, 6.24, 8.6, 8.53, 7.97, 6.06, 4.81, 3.84, 4.4, 5.16, 4.87, 4.02, 10.76, 10.76, 11.1, 10.77, 10.76, 10.45, 9.82, 9.5, 8.56, 7.93, 6.97, 6.04, 5.43, 4.19, 3.22, 3.45, 3.45, 3.83, 3.84, 3.72, 2.64, 0.74, 0.0, 0.0, -0.87, -3.49, -4.19, -3.22, -2.16, -1.08, 0.0, 0.0, -0.76, -0.79, 0.0, 0.0, 1.6, 4.16, 4.95, 2.98, 2.41, 2.23, 3.51, 5.36, 5.81, 5.31, 4.73, 4.8, 5.59, 5.59, 6.21, 6.65, 6.65, 6.66, 7.11, 7.45, 7.45, 8.33, 9.06, 9.54, 9.06, 8.91, 9.97, 10.62, 11.08, 11.15, 10.16, 10.02, 9.83, 10.68, 10.95, 10.95, 10.95, 10.93, 11.62, 11.52, 10.75, 10.25, 10.45, 10.62, 6.07, 3.49, 2.79, 0.66, 0.0, 1.49, 4.07, 7.24, 8.01, 7.08, 5.3, 4.43, 4.46, 4.12, 4.46, 4.24, 4.02, 3.58, 10.76, 10.76, 11.08, 11.08, 10.76, 10.45, 9.82, 9.5, 8.87, 8.24, 7.3, 6.06, 5.37, 4.84, 5.93, 3.49, 4.19, 4.46, 4.43, 4.36, 4.29, 2.4, 0.0, -1.65, -2.99, -3.99, -4.21, -3.17, -3.4, -2.47, -1.08, 0.0, 0.0, 0.0, 0.0, 0.0, 0.76, 3.22, 2.84, 1.49, 0.71, 1.24, 2.23, 3.04, 4.02, 4.4, 5.05, 5.05, 5.75, 7.31, 7.97, 6.21, 5.64, 6.07, 6.98, 7.45, 7.71, 8.33, 9.26, 9.54, 9.26, 9.7, 10.25, 10.73, 10.7, 10.16, 9.33, 9.49, 10.43, 11.62, 10.95, 11.18, 11.42, 12.42, 12.94, 12.96, 10.62, 7.28, 6.51, 8.63, 6.79, 4.74, 3.79, 3.2, 1.58, 2.82, 4.75, 6.21, 6.97, 5.49, 3.55, 3.64, 4.01, 3.48, 3.07, 3.07, 3.13, 2.63, 10.76, 10.77, 11.08, 11.08, 10.76, 10.45, 10.13, 9.8, 9.19, 8.24, 7.32, 6.35, 5.69, 4.11, 6.52, 5.09, 4.46, 4.74, 4.43, 4.81, 4.81, 5.43, 4.46, 1.66, -0.7, -3.22, -3.4, -4.21, -4.22, -3.2, -2.12, 0.0, 0.0, 0.0, 0.0, 0.0, 0.0, 0.0, 0.6, 0.0, 0.45, 0.45, 0.89, 1.79, 2.23, 2.98, 4.84, 5.82, 6.0, 7.74, 5.59, 5.34, 6.28, 6.79, 7.71, 8.36, 8.36, 8.46, 9.36, 9.8, 9.83, 9.83, 9.83, 9.39, 8.63, 9.08, 9.6, 9.9, 10.25, 11.36, 11.15, 10.73, 11.18, 12.04, 12.49, 12.52, 11.18, 7.56, 6.55, 8.4, 8.4, 6.01, 4.94, 4.07, 3.53, 4.15, 4.84, 5.51, 4.5, 3.2, 2.8, 2.8, 2.3, 1.88, 2.12, 2.24, 2.17, 1.86, 10.77, 11.08, 11.08, 10.77, 10.76, 10.45, 10.43, 10.12, 9.19, 8.87, 7.95, 6.71, 5.72, 5.1, 5.24, 4.95, 4.95, 4.65, 3.72, 3.07, 3.93, 5.81, 7.63, 7.21, 3.45, 0.85, -0.65, -2.53, -4.19, -3.2, -1.01, 0.0, 0.0, 0.0, 0.0, 0.0, -0.6, -0.63, 0.0, 0.89, 1.34, 1.26, 1.26, 1.58, 1.86, 2.4, 3.9, 4.98, 5.43, 6.0, 7.81, 6.28, 6.79, 7.45, 8.01, 8.49, 8.49, 8.94, 9.36, 9.8, 9.72, 9.26, 8.05, 6.7, 7.07, 8.67, 10.15, 10.25, 10.25, 10.28, 10.28, 10.7, 10.62, 10.52, 11.09, 11.06, 9.81, 8.46, 8.8, 9.89, 8.4, 6.32, 4.29, 4.87, 4.87, 4.15, 4.15, 3.95, 3.33, 2.72, 2.11, 1.13, 0.65, 0.0, 0.89, 1.7, 1.86, 1.49, 11.08, 11.08, 11.08, 10.76, 10.76, 10.45, 10.43, 9.82, 9.8, 9.19, 8.58, 8.24, 7.33, 6.33, 5.64, 4.96, 5.21, 4.2, 3.52, 3.14, 3.3, 4.4, 6.69, 7.47, 5.44, 2.2, 0.0, -2.12, -2.53, -1.99, -0.87, 0.0, 0.0, 0.0, 0.0, 0.0, 0.45, 0.0, 0.89, 2.24, 2.6, 2.0, 1.86, 2.12, 2.17, 2.68, 3.58, 3.51, 4.4, 5.43, 6.0, 6.79, 6.98, 7.11, 7.15, 7.6, 7.56, 7.89, 8.14, 8.63, 7.71, 6.26, 5.81, 5.37, 7.02, 8.06, 9.03, 9.18, 7.92, 7.6, 8.05, 8.46, 8.91, 8.84, 9.28, 9.58, 8.91, 8.82, 9.4, 10.37, 9.62, 6.85, 4.43, 4.94, 4.2, 2.76, 2.89, 2.69, 2.66, 1.47, 0.61, 0.0, 0.0, 0.0, -0.0, 0.71, 1.2, 1.2, 11.08, 11.08, 11.38, 11.06, 10.76, 10.45, 10.75, 10.43, 9.82, 9.8, 9.5, 9.5, 8.87, 7.96, 6.7, 5.13, 4.96, 4.66, 5.06, 5.02, 4.75, 4.21, 4.1, 5.06, 4.15, 1.1, -0.65, -2.24, -2.6, -2.21, -1.24, -0.95, -0.89, -0.89, -0.63, 0.0, 0.63, 0.89, 1.79, 2.6, 2.8, 2.23, 2.12, 4.77, 4.92, 2.24, 3.04, 3.6, 3.22, 4.22, 5.75, 6.28, 6.28, 5.75, 5.09, 5.09, 4.66, 4.92, 5.09, 4.66, 3.47, 3.35, 3.91, 4.83, 6.31, 7.18, 7.08, 6.88, 6.06, 5.82, 5.86, 6.55, 6.67, 7.12, 8.38, 9.15, 8.67, 7.67, 8.05, 9.6, 8.76, 6.54, 4.46, 2.66, 0.7, 0.0, 0.69, 0.64, 0.7, 0.0, -0.65, -0.54, -1.26, -1.79, -1.2, -0.0, 0.61, 1.16, 11.08, 11.38, 11.06, 11.06, 10.76, 10.75, 10.75, 10.43, 10.13, 9.82, 10.12, 9.5, 9.5, 9.19, 8.5, 7.23, 5.95, 5.69, 6.32, 7.27, 7.86, 8.19, 6.67, 6.44, 4.22, 3.45, 2.48, 0.45, 0.0, -0.89, -0.63, 0.0, -0.0, -0.63, 0.45, 0.0, 0.45, 1.2, 1.26, 1.86, 2.8, 2.6, 3.2, 4.77, 4.47, 1.79, 2.0, 1.9, 1.9, 2.98, 4.6, 4.11, 3.72, 3.11, 3.11, 3.11, 3.2, 3.35, 1.79, -0.0, -0.0, 2.28, 3.85, 3.85, 4.01, 4.75, 6.2, 5.48, 5.63, 5.52, 6.23, 6.98, 7.06, 6.26, 7.21, 8.82, 8.24, 7.06, 7.96, 8.58, 7.07, 4.84, 4.46, 1.88, 0.6, 0.0, 0.0, 0.0, 0.0, -0.65, -0.65, -1.16, -2.6, -3.07, -1.84, -0.0, 0.59, 0.7, 10.77, 11.38, 11.06, 11.06, 11.06, 10.75, 10.75, 10.75, 10.43, 10.43, 9.82, 10.12, 9.8, 9.8, 9.46, 8.78, 7.73, 7.35, 7.72, 8.55, 9.63, 10.91, 11.39, 10.34, 9.24, 8.92, 8.49, 8.47, 7.07, 5.33, 2.24, 1.79, 1.6, 1.2, 1.2, 0.95, 0.95, 1.26, 1.58, 2.23, 2.23, 2.4, 2.4, 2.6, 2.24, 1.34, 0.95, 1.0, 2.84, 2.84, 2.41, 2.3, 2.4, 1.6, 1.23, 2.32, 2.12, 4.47, 3.47, -0.85, -0.77, 1.56, 3.16, 3.16, 2.41, 3.19, 4.31, 4.55, 4.06, 5.6, 7.12, 7.9, 7.07, 5.81, 6.0, 7.67, 8.06, 7.41, 6.64, 6.32, 5.72, 3.49, 4.73, 4.73, 3.04, 2.5, 2.12, 0.6, 0.0, 0.0, -0.7, -2.07, -3.13, -3.83, -2.07, -0.66, -0.0, 0.66, 10.76, 11.06, 11.06, 11.06, 11.36, 11.03, 11.03, 10.75, 10.75, 10.43, 10.43, 10.12, 10.12, 9.8, 9.77, 9.72, 9.37, 8.94, 9.21, 9.38, 10.3, 11.6, 12.6, 13.26, 13.21, 12.92, 12.52, 12.5, 11.61, 9.82, 8.05, 5.81, 5.81, 2.24, 2.12, 1.7, 1.26, 1.24, 1.58, 1.86, 2.12, 2.24, 2.24, 4.92, 3.58, 1.9, -0.0, -0.0, 1.2, 1.4, 1.6, 1.6, 1.6, -0.0, -0.0, -0.0, -0.0, 4.77, 6.26, 0.85, -1.58, -0.0, 3.45, 2.39, 2.23, 2.47, 2.89, 2.97, 3.25, 5.28, 7.36, 7.9, 6.39, 3.74, 2.6, 4.46, 3.6, 3.22, 3.22, 3.6, 3.2, 4.41, 5.77, 7.15, 4.87, 5.34, 5.16, 2.68, 0.71, 0.0, 0.0, -1.88, -2.68, -3.48, -2.98, -1.47, -0.0, 0.7, 10.76, 10.76, 11.06, 11.06, 11.36, 11.36, 11.03, 11.03, 10.75, 10.43, 10.43, 10.4, 10.12, 10.09, 9.77, 10.06, 10.06, 10.01, 10.15, 10.41, 11.22, 12.11, 12.83, 13.51, 13.88, 14.11, 13.81, 13.41, 12.95, 12.06, 11.16, 8.94, 8.05, 5.81, 4.92, 4.24, 3.16, 1.49, 4.09, 2.12, 2.24, 4.92, 4.77, 4.34, 3.58, 1.4, -0.0, -0.0, -0.0, 0.63, 1.26, 1.9, -0.0, -0.0, 0.89, 0.0, 0.0, 3.83, 8.05, 4.43, -0.0, 1.03, 2.49, 3.91, 3.4, 2.26, 2.4, 2.26, 3.45, 4.19, 5.69, 6.06, 4.46, 0.8, -0.0, 0.85, 1.74, 2.41, 3.22, 3.74, 4.66, 6.21, 7.6, 8.49, 7.15, 5.36, 6.26, 4.92, 3.2, 0.79, 0.0, -0.61, -1.34, -1.47, -1.55, -0.0, 0.76, 0.76, 10.76, 10.76, 10.76, 11.06, 11.36, 11.36, 11.36, 11.03, 11.03, 10.75, 10.43, 10.72, 10.4, 10.09, 10.09, 10.06, 10.3, 10.65, 11.16, 11.62, 12.03, 12.51, 12.83, 13.26, 13.41, 14.11, 14.26, 14.29, 13.86, 13.86, 12.96, 12.07, 9.82, 8.43, 5.36, 1.7, 1.74, 2.41, 4.46, 4.77, 2.24, 2.68, 4.92, 4.47, 4.02, 1.6, -0.0, -0.0, 1.4, 1.4, 2.8, 1.2, 1.6, 1.34, 1.79, 0.0, 1.6, 3.35, 6.26, 5.37, 3.79, 4.47, 4.43, 5.01, 3.79, 2.4, 0.81, 1.3, 3.76, 3.22, 4.19, 5.31, 1.79, -0.0, -0.0, 1.49, 3.4, 5.21, 5.69, 5.43, 6.44, 6.94, 7.45, 8.01, 7.15, 6.07, 6.07, 5.64, 5.59, 2.84, 1.49, 1.34, 0.74, -0.0, -0.0, -0.0, 1.26, 1.26, 10.76, 10.76, 10.76, 11.06, 11.36, 11.36, 11.36, 11.36, 11.03, 11.03, 10.72, 10.72, 10.4, 10.09, 10.09, 10.65, 10.65, 10.88, 11.72, 11.99, 12.42, 13.02, 13.32, 13.69, 14.0, 14.57, 14.65, 14.7, 14.74, 14.74, 14.74, 13.85, 11.49, 9.6, 3.04, 1.7, 1.58, 2.4, 2.54, 5.36, 4.77, 2.24, 4.92, 2.24, 4.02, 1.4, -0.0, -0.0, 1.27, 2.48, 3.72, 3.72, 4.09, 4.09, 4.66, 4.47, 4.92, 5.81, 6.4, 6.52, 6.52, 5.93, 6.13, 5.6, 3.16, -0.0, -0.0, 1.27, 3.48, 5.64, 4.92, 5.09, 1.49, 0.45, 0.8, 2.11, 4.83, 7.08, 7.59, 6.95, 7.02, 7.07, 7.21, 7.01, 6.71, 5.29, 4.4, 4.93, 5.34, 4.09, 4.52, 4.0, 2.18, 1.36, 1.52, 2.06, 2.54, 2.54, 10.76, 10.76, 10.76, 10.76, 11.06, 11.36, 11.36, 11.36, 11.33, 11.33, 10.99, 10.72, 10.4, 10.09, 10.09, 10.3, 10.88, 11.23, 11.16, 11.62, 12.79, 13.31, 13.74, 13.69, 14.0, 14.57, 15.02, 15.02, 15.1, 15.02, 15.02, 14.13, 12.75, 10.04, 6.94, 4.47, 2.24, 2.68, 3.58, 3.39, 2.54, 2.24, 2.68, 2.24, 4.02, 2.53, 1.27, 1.41, 2.48, 3.48, 4.09, 4.8, 4.29, 4.29, 4.65, 5.01, 5.81, 5.75, 5.59, 6.7, 6.7, 6.8, 6.4, 5.81, 2.84, -0.0, -0.0, 1.6, 3.58, 6.14, 7.74, 7.35, 6.07, 5.81, 4.8, 3.72, 5.3, 8.65, 9.9, 8.3, 6.82, 6.7, 6.55, 5.81, 4.02, 4.47, 2.68, 5.59, 6.21, 5.36, 6.51, 6.39, 4.37, 2.06, 2.44, 3.09, 4.14, 4.14, 10.76, 10.76, 10.76, 10.76, 11.06, 11.36, 11.36, 11.36, 11.33, 11.33, 10.99, 10.99, 10.4, 10.36, 10.09, 10.24, 10.06, 10.59, 10.51, 11.75, 13.19, 13.99, 13.48, 12.7, 11.87, 13.44, 12.04, 12.37, 12.8, 12.94, 13.41, 13.1, 12.3, 10.6, 8.77, 6.94, 6.04, 5.81, 5.34, 4.0, 3.74, 3.95, 4.02, 5.81, 5.2, 4.09, 3.48, 2.73, 3.48, 3.48, 4.8, 4.8, 4.65, 4.11, 4.43, 4.74, 5.24, 5.59, 5.93, 6.32, 6.8, 6.4, 6.79, 5.09, 1.66, -0.0, 0.76, 1.66, 4.15, 6.71, 8.94, 12.07, 15.57, 16.82, 14.4, 9.72, 7.15, 8.94, 10.73, 9.8, 6.71, 7.11, 6.66, 6.07, 4.02, 3.58, 4.24, 5.44, 5.75, 5.44, 6.07, 7.06, 4.83, 2.82, 3.27, 3.69, 3.64, 3.64, 10.76, 10.76, 10.76, 10.76, 11.36, 11.36, 11.36, 11.36, 11.33, 11.33, 11.33, 10.99, 10.69, 10.69, 10.69, 10.3, 10.01, 9.42, 9.3, 9.56, 12.08, 13.36, 12.93, 11.9, 10.9, 11.34, 11.62, 11.12, 11.62, 11.87, 11.71, 11.4, 11.04, 10.22, 8.79, 7.74, 7.26, 7.26, 7.4, 7.4, 7.07, 7.13, 7.6, 8.05, 7.07, 6.79, 5.2, 4.8, 4.8, 4.8, 4.8, 4.8, 4.11, 3.49, 3.07, 3.16, 5.93, 4.46, 4.81, 6.4, 6.23, 5.81, 5.4, 3.48, 0.82, 0.78, 0.78, 2.47, 5.15, 7.35, 10.45, 14.11, 18.5, 20.87, 19.67, 15.57, 11.09, 9.3, 10.01, 9.11, 8.8, 8.8, 8.36, 6.66, 4.92, 4.87, 5.05, 5.72, 6.13, 6.13, 4.93, 5.09, 4.65, 3.9, 3.32, 4.01, 3.43, 3.43, 10.76, 10.76, 10.76, 10.76, 11.03, 11.36, 11.03, 11.03, 11.33, 11.33, 11.33, 11.28, 11.28, 10.94, 10.94, 10.94, 10.3, 10.01, 9.66, 10.24, 11.54, 11.72, 11.8, 11.72, 12.16, 12.79, 12.33, 12.11, 11.87, 11.71, 10.94, 11.04, 10.66, 9.77, 8.86, 7.84, 7.26, 7.26, 7.69, 7.87, 8.42, 8.47, 8.94, 9.39, 8.92, 8.43, 6.61, 5.4, 5.2, 5.64, 5.2, 4.46, 3.22, 3.49, 3.76, 2.15, 3.79, 4.43, 5.93, 5.81, 4.8, 4.4, 2.48, 1.14, -0.0, 0.78, 0.76, 2.64, 4.56, 6.39, 8.32, 11.44, 15.1, 16.92, 17.27, 16.03, 10.07, 8.56, 8.85, 9.05, 9.33, 9.72, 9.81, 8.49, 8.01, 5.16, 5.05, 5.69, 8.25, 7.56, 4.85, 2.86, 4.74, 5.06, 4.11, 3.48, 2.79, 2.79, 10.76, 10.76, 10.45, 10.75, 11.03, 11.03, 11.03, 11.03, 11.33, 11.33, 11.33, 11.28, 11.28, 11.28, 11.28, 10.94, 10.65, 10.65, 11.28, 12.45, 12.27, 11.24, 10.96, 11.34, 12.42, 13.31, 13.81, 13.51, 13.41, 12.64, 11.86, 11.49, 11.04, 10.22, 9.32, 8.3, 7.4, 7.21, 7.26, 7.84, 7.87, 8.42, 8.86, 8.92, 8.94, 8.05, 7.6, 6.14, 5.7, 5.81, 5.2, 4.09, 2.4, 2.6, 3.49, 3.76, 2.98, 4.16, 5.69, 4.11, 1.9, 0.8, -0.0, -0.0, 0.78, 0.78, 1.72, 2.47, 2.51, 3.6, 4.66, 6.45, 10.55, 12.74, 6.39, 5.59, 6.53, 7.77, 8.51, 8.44, 9.3, 9.89, 9.81, 9.39, 9.36, 7.89, 6.07, 5.64, 8.46, 9.15, 6.11, 3.14, 4.74, 6.0, 5.09, 2.84, 1.88, 1.88, 10.76, 10.76, 10.76, 11.03, 11.03, 11.03, 11.03, 11.33, 11.33, 11.33, 11.33, 11.28, 11.28, 11.28, 11.28, 11.23, 11.23, 11.23, 12.09, 13.01, 13.2, 12.03, 11.22, 11.22, 11.75, 12.79, 13.53, 13.99, 14.16, 13.84, 13.1, 12.64, 11.86, 11.04, 10.14, 9.23, 8.33, 7.87, 7.4, 7.4, 7.4, 7.87, 7.97, 7.97, 8.03, 7.15, 7.6, 6.26, 5.81, 5.36, 4.34, 3.16, 2.2, 2.4, 2.6, 2.6, 1.66, 2.47, 3.2, 3.22, 0.87, -0.0, -0.0, 0.82, 0.78, 1.63, 1.63, 1.6, 1.6, 2.47, 1.23, 2.6, 11.6, 7.15, 1.34, -1.4, 0.69, 3.53, 6.36, 7.77, 8.44, 9.3, 9.49, 9.7, 9.36, 8.49, 6.71, 6.71, 7.6, 7.45, 6.36, 5.72, 6.35, 6.96, 5.69, 3.07, 1.4, 1.4, 10.76, 10.76, 10.76, 11.03, 11.03, 11.03, 11.33, 11.33, 11.33, 11.33, 11.33, 11.28, 11.28, 11.28, 11.52, 11.8, 11.8, 11.8, 12.45, 12.93, 12.82, 12.16, 12.28, 11.75, 11.88, 12.51, 13.02, 13.74, 13.99, 13.99, 13.69, 13.41, 12.64, 12.3, 11.4, 10.58, 9.68, 9.23, 8.33, 7.87, 7.87, 7.4, 7.51, 7.51, 7.07, 6.68, 7.15, 6.26, 5.81, 5.36, 4.47, 3.72, 2.48, 2.73, 2.2, 2.4, 0.76, -0.0, 1.14, 3.45, 2.4, -0.0, -0.0, 0.76, 0.82, 1.72, 2.47, 3.68, 2.4, 1.66, 2.84, 8.67, 13.86, 13.78, 11.39, 7.76, 6.14, 4.65, 5.46, 6.53, 7.6, 8.49, 9.21, 9.7, 9.49, 7.71, 7.45, 6.55, 4.47, 4.74, 6.7, 6.98, 8.23, 8.49, 6.8, 3.07, 1.2, 1.2, 10.76, 10.76, 11.06, 11.03, 11.03, 11.03, 11.33, 11.33, 11.33, 11.33, 11.63, 11.28, 11.28, 11.52, 11.52, 11.8, 11.8, 12.37, 12.93, 12.93, 12.65, 12.54, 12.42, 12.56, 12.79, 12.79, 12.62, 13.24, 13.32, 13.51, 13.26, 13.26, 12.94, 12.51, 12.18, 11.4, 10.94, 10.04, 9.57, 9.23, 8.77, 8.42, 7.97, 7.51, 7.06, 6.61, 6.16, 5.78, 5.78, 5.36, 4.92, 4.77, 2.84, 1.41, 1.41, 1.55, -0.0, -0.0, -0.0, 2.2, 4.11, 2.3, 0.87, -0.0, 0.82, 1.47, 2.4, 3.11, 3.47, 3.6, 5.36, 8.45, 13.36, 15.61, 17.38, 16.63, 15.34, 12.14, 8.43, 4.96, 5.47, 7.93, 9.13, 9.84, 8.67, 6.94, 6.28, 4.41, 2.5, 2.9, 5.28, 8.53, 9.49, 9.9, 8.49, 4.09, 1.61, 1.61, 10.76, 10.76, 11.06, 11.03, 11.03, 11.03, 11.33, 11.33, 11.33, 11.87, 11.52, 11.28, 11.52, 11.52, 11.52, 11.8, 12.16, 12.73, 12.93, 12.56, 12.27, 12.54, 12.54, 12.95, 12.95, 13.19, 13.02, 12.83, 12.83, 13.02, 13.02, 12.78, 12.78, 12.46, 12.04, 11.71, 11.28, 10.81, 10.47, 10.04, 9.68, 9.23, 8.86, 8.41, 7.51, 7.06, 6.6, 6.23, 5.78, 5.78, 5.36, 4.47, 3.82, 1.27, 1.41, 1.41, -0.0, -0.0, -0.0, -0.0, 3.79, 3.49, 1.55, 0.76, 1.6, 1.55, 2.53, 2.2, 4.11, 4.6, 5.75, 8.49, 10.7, 13.78, 14.95, 15.33, 15.78, 15.46, 10.25, 4.81, 4.6, 6.44, 8.38, 8.85, 7.59, 7.35, 6.54, 3.58, 3.07, 2.72, 4.56, 9.2, 11.05, 11.3, 10.09, 8.05, 5.09, 5.09, 10.76, 10.76, 11.36, 11.03, 11.03, 11.03, 11.33, 11.33, 11.33, 11.87, 11.52, 11.52, 11.52, 11.52, 11.8, 11.8, 12.37, 12.73, 12.93, 12.65, 12.27, 12.54, 12.54, 12.7, 12.95, 13.31, 13.31, 13.02, 13.24, 13.02, 12.6, 12.78, 12.3, 11.87, 11.99, 11.56, 11.13, 11.08, 11.24, 10.81, 10.34, 10.47, 10.01, 8.79, 8.42, 7.97, 7.07, 6.6, 6.16, 5.7, 5.24, 4.44, 3.13, 1.24, -0.0, -0.0, -0.0, -0.0, -0.57, -0.0, 2.48, 3.22, 2.32, 1.6, 2.49, 2.4, 2.3, 4.19, 4.54, 5.75, 6.21, 7.6, 9.39, 11.06, 11.62, 12.47, 14.68, 13.88, 11.06, 3.51, 1.6, 3.69, 6.21, 7.09, 7.27, 7.27, 6.0, 2.8, 3.22, 3.64, 4.43, 6.35, 10.9, 12.08, 11.37, 10.73, 9.52, 9.52, 10.76, 10.76, 11.03, 11.03, 11.03, 11.03, 11.33, 11.33, 11.33, 11.87, 11.52, 11.52, 11.52, 11.8, 11.8, 12.16, 12.37, 12.73, 12.37, 12.65, 12.27, 12.54, 12.54, 12.7, 12.95, 13.08, 13.31, 13.31, 13.53, 13.32, 13.02, 13.02, 12.78, 12.3, 11.87, 11.56, 11.56, 11.08, 11.08, 10.81, 10.81, 10.34, 10.04, 9.57, 9.23, 9.23, 8.77, 7.51, 6.61, 6.04, 5.09, 4.77, 3.53, 2.12, 0.71, -0.0, -0.0, -0.0, -0.0, -0.0, 0.79, 1.7, 1.72, 1.6, 2.4, 3.45, 3.16, 3.2, 4.02, 5.36, 6.21, 7.15, 8.05, 8.9, 9.83, 12.07, 14.28, 12.96, 10.28, 7.15, 2.5, 1.07, 2.26, 4.96, 6.23, 6.32, 4.24, 2.5, 3.79, 5.09, 4.46, 5.46, 10.23, 12.25, 12.5, 12.33, 11.69, 11.69, 11.36, 11.36, 11.03, 11.03, 11.03, 11.33, 11.33, 11.33, 11.33, 11.87, 11.52, 11.52, 11.8, 11.8, 12.16, 12.37, 12.37, 12.37, 12.37, 12.27, 12.27, 12.27, 12.7, 12.7, 12.95, 12.95, 13.19, 12.79, 13.02, 13.24, 13.24, 13.02, 13.02, 12.78, 12.3, 11.81, 11.56, 11.08, 11.08, 10.66, 10.6, 10.34, 9.86, 9.11, 8.36, 8.41, 8.77, 8.64, 8.64, 6.79, 5.81, 5.09, 4.3, 2.68, 1.26, -0.0, -0.0, -0.0, -0.85, -0.0, -0.0, 0.88, 0.82, 1.66, 1.49, 3.11, 3.9, 2.53, 1.79, 2.97, 4.85, 7.71, 8.8, 8.9, 10.15, 12.79, 13.35, 12.58, 11.62, 11.52, 9.36, 4.8, 3.16, 3.2, 3.49, 4.73, 4.41, 3.32, 4.24, 4.4, 4.09, 5.43, 7.85, 11.2, 12.39, 12.79, 12.39, 12.39, 11.36, 11.36, 11.03, 11.03, 11.03, 11.33, 11.33, 11.33, 11.33, 11.52, 11.52, 11.8, 11.8, 12.16, 12.37, 12.37, 12.37, 12.37, 12.65, 12.27, 12.27, 12.27, 12.82, 12.7, 12.7, 12.95, 12.56, 12.79, 13.02, 13.02, 13.24, 12.83, 13.02, 12.6, 12.11, 11.87, 11.39, 11.56, 11.08, 11.08, 10.66, 10.6, 10.18, 9.43, 8.48, 7.89, 8.33, 7.74, 8.0, 7.93, 7.09, 6.1, 5.02, 3.87, 2.24, -0.0, -0.0, -0.71, -0.8, -0.76, -0.0, -0.0, 0.7, 0.76, 1.55, 1.52, 3.32, 3.4, 1.6, 0.95, 2.98, 6.44, 10.8, 13.05, 12.42, 11.83, 12.47, 11.75, 12.87, 14.75, 15.57, 13.4, 11.62, 8.92, 7.6, 8.01, 7.94, 8.38, 7.57, 6.36, 6.0, 6.94, 8.67, 10.27, 11.57, 12.92, 12.92, 12.92, 11.36, 11.36, 11.03, 11.03, 11.03, 11.33, 11.33, 11.33, 11.63, 11.52, 11.52, 11.52, 12.16, 12.37, 12.37, 12.37, 12.37, 12.37, 12.27, 12.27, 12.27, 12.27, 12.45, 12.7, 12.7, 12.81, 12.42, 12.28, 12.62, 12.62, 13.02, 13.24, 12.83, 12.83, 12.53, 12.11, 11.81, 11.39, 11.33, 11.08, 10.66, 10.6, 10.6, 10.12, 9.21, 8.82, 7.89, 7.09, 7.09, 7.01, 6.8, 6.28, 5.75, 4.6, 3.09, 1.34, -0.0, -0.0, -0.71, -1.0, -0.76, -0.0, -0.0, 0.7, 0.79, -0.0, 0.83, 2.54, 4.71, 3.79, 2.53, 4.95, 9.3, 14.54, 17.0, 14.23, 10.87, 9.3, 10.15, 14.87, 17.87, 18.33, 15.6, 14.19, 12.77, 12.75, 12.75, 11.89, 10.05, 8.24, 7.76, 8.19, 8.67, 10.37, 12.01, 12.92, 12.92, 12.92, 11.03, 11.03, 11.03, 11.03, 11.33, 11.33, 11.33, 11.33, 11.28, 11.52, 11.52, 11.52, 12.16, 12.37, 12.37, 12.37, 12.37, 12.27, 12.27, 12.27, 12.27, 12.27, 12.54, 12.54, 12.54, 12.42, 12.42, 11.75, 12.15, 11.82, 12.62, 13.02, 12.83, 12.83, 12.33, 12.11, 12.11, 11.81, 11.39, 11.33, 10.91, 11.08, 10.6, 10.18, 9.92, 9.92, 9.21, 8.48, 7.51, 7.09, 7.01, 6.8, 6.28, 5.21, 4.0, 2.24, 1.34, 0.63, 0.6, -0.0, -0.0, -0.0, 0.81, -0.0, -0.0, -0.0, -0.0, 1.3, 4.74, 6.28, 5.06, 5.15, 7.44, 12.62, 18.88, 19.97, 11.4, 5.43, 6.06, 10.79, 15.5, 17.43, 16.93, 15.46, 15.38, 15.82, 15.36, 13.88, 12.14, 9.89, 8.71, 8.38, 7.94, 9.74, 11.75, 12.22, 12.66, 12.66, 11.03, 11.03, 11.03, 11.03, 11.33, 11.33, 11.33, 10.99, 11.28, 11.52, 11.52, 11.52, 12.16, 12.37, 12.37, 12.37, 12.37, 12.27, 12.27, 12.27, 12.27, 12.27, 12.54, 12.54, 12.16, 12.42, 12.03, 12.03, 11.75, 11.75, 11.31, 11.82, 12.33, 12.33, 12.33, 11.92, 12.11, 11.62, 11.62, 11.39, 11.33, 10.91, 10.91, 10.42, 10.42, 10.42, 10.0, 9.7, 8.72, 8.0, 8.0, 7.51, 6.8, 5.75, 4.65, 3.6, 3.07, 1.79, 1.79, 1.7, 1.24, -0.0, -0.0, -0.0, -0.0, 0.7, 0.76, 2.53, 4.11, 6.13, 5.77, 5.46, 6.98, 11.15, 17.73, 22.88, 17.15, 8.05, 3.82, 7.06, 11.99, 15.2, 16.97, 17.82, 16.9, 16.45, 15.38, 13.88, 12.14, 9.11, 8.36, 8.01, 8.94, 9.39, 11.18, 12.42, 11.99, 11.99, 11.03, 11.03, 11.03, 11.03, 11.33, 11.33, 11.33, 10.99, 11.28, 11.52, 11.52, 11.87, 12.37, 12.37, 12.37, 12.37, 12.27, 12.27, 12.27, 12.27, 12.27, 12.54, 12.54, 12.54, 12.16, 12.42, 12.03, 12.42, 12.42, 12.28, 11.6, 11.82, 11.82, 11.92, 11.92, 11.92, 11.82, 12.04, 11.62, 11.62, 11.21, 11.33, 10.91, 10.91, 10.42, 10.42, 10.42, 10.12, 9.63, 9.21, 8.72, 8.48, 8.0, 7.31, 6.51, 5.31, 4.77, 3.98, 2.68, 3.13, 2.84, 1.19, -0.0, -0.0, 0.82, 0.79, 1.66, 2.6, 3.76, 5.06, 5.69, 6.28, 7.74, 10.73, 15.65, 19.97, 20.51, 17.04, 12.66, 10.73, 11.99, 14.15, 16.03, 16.97, 16.54, 14.26, 12.85, 11.86, 10.63, 7.57, 4.92, 7.6, 8.05, 9.36, 10.26, 12.07, 12.07, 12.07, 11.03, 11.03, 11.03, 11.03, 11.33, 11.33, 11.33, 10.99, 11.28, 11.52, 11.52, 11.87, 12.37, 12.37, 12.37, 12.27, 12.27, 12.27, 12.27, 12.27, 12.27, 12.54, 12.54, 12.16, 12.16, 12.42, 12.42, 12.42, 12.42, 12.79, 12.51, 12.11, 11.82, 11.82, 11.82, 11.82, 11.41, 11.41, 11.41, 11.62, 11.62, 11.21, 11.33, 10.91, 10.91, 10.49, 10.42, 10.0, 9.92, 9.42, 9.21, 9.21, 8.96, 8.91, 8.0, 7.69, 6.94, 6.16, 5.36, 3.98, 3.07, 2.2, 1.14, 1.1, 1.1, 1.23, 1.83, 2.6, 3.47, 4.95, 5.37, 6.87, 9.63, 11.52, 13.41, 15.57, 17.04, 17.9, 18.84, 18.82, 16.99, 15.58, 14.15, 13.34, 12.52, 10.27, 9.32, 8.91, 7.15, 4.92, 4.02, 3.58, 7.6, 8.91, 8.91, 9.36, 11.18, 11.18, 11.03, 11.03, 11.03, 11.03, 11.33, 11.33, 10.99, 10.99, 11.28, 11.52, 11.52, 11.87, 12.37, 12.37, 12.37, 12.65, 12.27, 12.27, 12.27, 12.27, 12.54, 12.54, 12.54, 12.16, 12.16, 12.42, 12.42, 12.42, 12.42, 12.67, 12.28, 12.51, 12.11, 12.11, 11.82, 11.82, 11.41, 11.41, 11.41, 11.41, 11.62, 11.12, 11.12, 10.91, 10.91, 10.91, 10.91, 10.42, 10.0, 9.51, 9.42, 9.63, 9.63, 9.43, 9.39, 9.11, 8.77, 7.97, 7.13, 4.89, 4.11, 2.23, 2.4, 0.82, 1.6, 2.32, 1.49, 1.7, 2.6, 3.9, 5.69, 6.39, 9.77, 12.14, 13.67, 12.05, 12.74, 15.13, 18.17, 20.68, 20.0, 16.52, 13.41, 11.18, 9.36, 8.46, 8.01, 6.26, 4.47, 3.97, 3.53, 3.53, 6.21, 7.6, 8.94, 9.39, 9.39, 9.39, 10.75, 10.75, 11.03, 11.03, 11.33, 10.99, 10.99, 10.99, 11.28, 11.52, 11.87, 11.87, 12.37, 12.37, 12.37, 12.27, 12.27, 12.27, 12.27, 12.27, 12.54, 12.54, 12.16, 12.16, 12.16, 12.42, 12.42, 12.03, 12.03, 12.28, 12.28, 12.28, 12.51, 12.11, 12.11, 11.82, 11.41, 11.41, 11.31, 11.31, 10.91, 11.12, 10.71, 10.95, 10.0, 10.91, 10.91, 10.91, 10.42, 9.92, 9.51, 9.51, 9.7, 9.7, 9.43, 9.43, 9.11, 8.87, 7.6, 6.26, 5.24, 4.0, 2.4, 1.55, 1.6, 2.32, 1.7, 1.6, 2.6, 3.11, 4.65, 5.69, 7.81, 13.19, 15.1, 12.42, 9.39, 12.05, 16.97, 19.67, 19.66, 17.3, 14.93, 12.79, 10.52, 10.05, 9.74, 7.57, 4.87, 4.24, 4.24, 4.0, 5.64, 8.8, 10.16, 10.63, 11.6, 9.83, 10.75, 10.75, 10.75, 11.33, 10.99, 10.99, 10.99, 11.28, 11.28, 11.52, 11.87, 11.87, 12.37, 12.37, 12.0, 12.27, 12.27, 12.27, 12.27, 12.54, 12.54, 12.54, 12.16, 12.16, 12.16, 12.42, 12.42, 12.03, 12.03, 12.03, 12.28, 12.28, 12.28, 12.51, 12.11, 11.99, 11.82, 11.41, 11.41, 10.91, 10.91, 10.91, 10.4, 10.43, 9.7, 10.83, 10.71, 10.71, 10.62, 10.42, 9.92, 9.51, 9.51, 9.7, 9.43, 9.39, 9.11, 8.87, 8.05, 7.15, 6.6, 5.31, 5.01, 1.8, 1.7, 1.23, 1.1, 2.47, 2.47, 3.11, 3.55, 4.75, 7.21, 11.5, 16.63, 15.9, 11.52, 10.93, 13.42, 15.69, 14.69, 13.86, 13.79, 12.79, 11.75, 11.75, 11.89, 10.05, 7.76, 6.79, 5.94, 6.11, 7.01, 10.62, 12.05, 12.5, 12.96, 11.6, 10.75, 10.75, 10.43, 10.99, 10.99, 10.99, 10.99, 11.28, 11.28, 11.52, 11.52, 11.87, 12.16, 12.37, 12.0, 12.27, 12.27, 12.27, 12.27, 12.54, 12.54, 12.54, 12.16, 12.16, 12.16, 12.42, 12.03, 12.03, 12.03, 12.03, 12.28, 12.28, 12.28, 12.28, 12.11, 12.11, 11.99, 11.6, 11.41, 11.31, 10.91, 10.91, 10.4, 9.88, 10.15, 10.42, 10.71, 10.4, 10.21, 10.21, 9.92, 9.92, 9.51, 9.7, 9.39, 9.39, 9.11, 8.47, 8.05, 7.6, 7.06, 6.04, 4.6, 4.11, 2.6, 1.23, 1.6, 2.6, 2.29, 3.33, 3.33, 4.29, 6.28, 8.73, 12.87, 16.09, 17.08, 13.78, 10.26, 7.33, 6.13, 6.36, 8.94, 10.19, 11.42, 12.33, 12.79, 11.42, 9.58, 8.82, 7.57, 7.12, 8.05, 11.18, 12.96, 12.96, 12.96, 12.96, 10.43, 10.43, 10.72, 10.72, 10.72, 10.99, 11.28, 11.28, 11.28, 11.28, 11.52, 11.52, 11.8, 11.8, 11.8, 12.27, 12.27, 12.27, 12.54, 12.54, 12.54, 12.16, 12.16, 12.16, 12.42, 12.42, 12.03, 12.03, 11.88, 11.88, 12.03, 12.28, 12.28, 12.28, 11.88, 12.11, 12.11, 11.99, 11.6, 11.41, 11.31, 10.91, 10.4, 10.16, 10.4, 10.4, 10.11, 9.71, 9.71, 9.71, 9.71, 9.51, 9.51, 9.63, 9.39, 8.96, 9.11, 8.42, 8.05, 7.6, 7.13, 6.16, 6.14, 4.46, 2.6, 1.23, 1.7, 2.32, 1.84, 3.11, 3.9, 4.29, 4.74, 6.28, 8.49, 12.24, 17.07, 19.31, 15.59, 9.49, 3.53, 4.47, 7.94, 11.42, 13.25, 12.89, 11.6, 9.81, 9.36, 8.49, 7.6, 7.15, 8.01, 11.08, 12.86, 12.87, 12.42, 12.42, 10.72, 10.72, 10.72, 10.72, 10.72, 10.72, 10.94, 11.28, 11.28, 11.28, 11.52, 11.8, 11.8, 11.8, 11.8, 12.09, 12.27, 12.27, 12.27, 12.54, 12.54, 12.16, 12.16, 12.16, 12.42, 12.42, 12.03, 11.88, 11.88, 11.88, 11.88, 12.28, 12.28, 11.88, 11.88, 11.88, 11.88, 11.99, 11.6, 11.6, 11.08, 11.31, 10.91, 10.68, 11.08, 10.91, 10.21, 9.71, 9.2, 9.2, 9.42, 9.01, 9.01, 9.21, 8.96, 8.96, 8.77, 8.42, 8.03, 7.6, 7.15, 6.26, 4.89, 4.8, 2.4, 1.14, 2.32, 2.32, 1.7, 2.4, 4.01, 4.11, 5.36, 5.46, 7.07, 9.48, 14.07, 19.26, 21.06, 18.1, 14.62, 13.23, 14.39, 15.54, 15.96, 14.44, 10.63, 8.49, 7.15, 7.56, 7.01, 7.45, 7.28, 9.54, 12.3, 11.84, 11.84, 11.84, 10.72, 10.72, 10.72, 10.72, 10.4, 10.69, 10.69, 10.94, 10.94, 11.28, 11.52, 11.8, 11.8, 11.8, 11.8, 12.09, 12.27, 12.27, 12.27, 12.54, 12.16, 12.16, 12.16, 12.16, 12.42, 12.42, 12.03, 11.88, 11.88, 11.88, 11.88, 12.14, 11.75, 11.75, 12.28, 11.88, 11.75, 11.75, 11.6, 11.6, 11.6, 11.08, 11.08, 11.08, 11.08, 10.91, 10.71, 10.21, 9.92, 9.42, 9.01, 9.01, 8.72, 8.72, 8.91, 8.48, 8.21, 7.87, 7.51, 7.07, 7.13, 6.26, 4.92, 4.8, 2.4, 2.6, 2.6, 2.32, 2.4, 2.98, 3.63, 3.63, 4.43, 5.82, 6.44, 8.3, 12.04, 16.44, 19.26, 18.72, 18.04, 17.87, 19.42, 19.19, 18.26, 15.54, 12.87, 10.05, 8.05, 7.45, 6.55, 6.36, 6.54, 10.43, 11.45, 10.95, 10.95, 10.95, 10.4, 10.4, 10.4, 10.4, 10.69, 10.69, 10.69, 10.94, 10.94, 11.28, 11.8, 11.8, 11.8, 11.44, 11.44, 11.72, 12.09, 12.27, 12.27, 12.54, 12.16, 12.16, 12.16, 12.16, 12.42, 12.42, 12.03, 12.03, 11.88, 11.88, 11.88, 11.88, 11.75, 11.75, 12.14, 12.28, 11.75, 11.75, 11.75, 11.6, 11.6, 11.6, 11.08, 11.08, 10.91, 10.91, 10.5, 10.62, 10.21, 9.92, 9.51, 9.21, 8.79, 8.72, 8.48, 8.17, 8.17, 7.87, 7.4, 7.06, 6.68, 6.23, 5.36, 3.7, 3.49, 2.6, 2.6, 2.4, 2.4, 3.35, 3.76, 3.22, 4.01, 5.15, 6.44, 7.35, 10.01, 13.23, 15.59, 16.12, 16.33, 18.86, 21.92, 21.49, 18.41, 16.4, 15.96, 14.75, 12.5, 9.81, 10.68, 5.6, 7.42, 9.2, 9.74, 9.6, 9.6, 9.6, 10.4, 10.4, 10.4, 10.4, 10.69, 10.69, 10.69, 10.94, 10.94, 10.94, 11.58, 11.58, 11.23, 11.44, 11.44, 11.72, 12.09, 12.27, 12.27, 12.54, 12.16, 12.16, 12.16, 12.16, 12.42, 12.42, 12.03, 12.03, 11.88, 11.88, 11.88, 11.5, 11.5, 12.14, 12.14, 12.14, 11.75, 11.75, 11.75, 11.75, 11.36, 11.6, 11.08, 11.08, 10.91, 10.91, 10.4, 10.62, 10.21, 10.21, 9.92, 9.51, 9.21, 8.96, 8.91, 8.17, 7.74, 7.87, 7.4, 7.06, 6.68, 6.26, 5.81, 4.19, 3.16, 2.4, 2.4, 2.53, 2.98, 3.22, 3.22, 3.47, 4.01, 5.46, 6.4, 7.35, 8.95, 12.04, 12.79, 12.52, 14.08, 18.72, 21.59, 20.68, 18.67, 17.33, 16.74, 16.3, 14.73, 13.41, 9.6, 6.0, 5.82, 7.07, 8.05, 7.67, 7.67, 7.67, 10.4, 10.4, 10.4, 10.69, 10.36, 10.36, 10.69, 10.69, 10.94, 11.23, 11.23, 11.23, 11.23, 11.23, 11.23, 11.72, 11.72, 12.09, 12.27, 12.16, 12.16, 12.16, 12.16, 12.16, 12.42, 12.42, 12.42, 12.03, 11.88, 11.88, 11.88, 11.88, 11.88, 11.88, 11.88, 11.88, 11.75, 11.75, 11.75, 11.75, 11.36, 11.22, 11.08, 11.08, 10.91, 10.91, 10.4, 10.62, 10.21, 10.21, 9.92, 9.92, 9.7, 9.7, 9.11, 8.64, 8.17, 7.87, 7.51, 7.07, 7.13, 6.71, 5.81, 4.77, 3.43, 3.79, 2.4, 2.6, 2.8, 3.22, 3.22, 3.22, 4.43, 5.46, 5.82, 6.8, 8.0, 10.15, 10.87, 10.28, 11.87, 17.1, 20.67, 20.38, 19.68, 17.85, 16.16, 15.18, 13.41, 6.79, 5.34, 4.46, 3.79, 5.09, 5.72, 6.06, 6.06, 6.06, 10.12, 10.12, 10.12, 10.09, 10.36, 10.36, 10.36, 10.69, 10.94, 11.23, 11.23, 11.23, 11.23, 11.23, 11.23, 11.72, 11.72, 11.72, 11.72, 11.99, 11.99, 12.16, 12.16, 12.16, 12.42, 12.42, 12.42, 12.03, 11.88, 11.88, 11.88, 11.88, 11.88, 11.88, 11.88, 11.88, 11.5, 11.75, 11.75, 11.75, 11.36, 11.22, 11.08, 11.08, 10.68, 10.91, 10.4, 10.62, 10.21, 10.21, 9.92, 9.92, 9.92, 9.7, 9.43, 9.11, 8.64, 8.33, 7.97, 7.51, 7.58, 7.15, 6.26, 5.33, 3.72, 3.49, 2.6, 2.6, 3.76, 3.35, 3.16, 3.35, 4.43, 5.15, 5.82, 6.44, 7.03, 8.06, 9.0, 9.27, 10.63, 14.13, 17.71, 19.49, 20.43, 18.94, 15.53, 12.95, 6.22, 3.07, 2.21, 2.51, 3.43, 4.36, 5.06, 5.06, 5.06, 5.06, 10.12, 10.12, 10.09, 10.09, 10.09, 10.36, 10.36, 10.69, 10.94, 11.23, 11.23, 11.23, 11.23, 11.23, 11.23, 11.72, 11.72, 11.72, 11.72, 11.99, 11.99, 12.16, 12.16, 12.16, 12.16, 12.42, 12.42, 11.88, 11.88, 11.88, 11.88, 11.88, 11.88, 11.88, 11.88, 11.88, 11.5, 11.5, 11.5, 11.75, 11.36, 11.22, 10.83, 11.08, 10.68, 10.8, 10.4, 10.4, 10.21, 10.21, 10.11, 9.92, 9.92, 10.12, 9.86, 9.43, 9.11, 8.67, 8.33, 7.97, 7.52, 7.58, 6.71, 5.34, 3.88, 3.07, 2.6, 3.22, 3.63, 3.35, 3.16, 2.21, 3.79, 4.81, 5.15, 5.77, 6.44, 6.73, 8.03, 8.6, 9.3, 10.24, 12.72, 17.03, 20.38, 20.39, 13.34, 8.49, 3.58, 2.17, 2.12, 1.84, 2.3, 3.64, 3.72, 3.72, 3.72, 3.72, 9.8, 9.8, 10.09, 10.09, 10.09, 10.36, 10.36, 10.36, 10.99, 11.23, 11.23, 10.88, 10.88, 11.23, 11.23, 11.44, 11.72, 11.72, 11.72, 11.99, 11.99, 11.99, 12.16, 12.16, 12.16, 12.16, 12.42, 11.88, 11.88, 11.88, 11.88, 11.88, 11.88, 11.88, 11.88, 11.5, 11.5, 11.5, 11.5, 11.75, 11.22, 11.22, 10.83, 11.08, 10.68, 10.8, 10.4, 10.4, 10.21, 10.21, 10.11, 9.92, 9.92, 9.7, 9.7, 9.43, 9.39, 9.11, 8.64, 8.33, 7.97, 7.51, 6.68, 5.36, 4.11, 3.48, 2.76, 2.98, 4.01, 3.22, 3.35, 3.16, 1.9, 3.58, 4.11, 5.06, 5.69, 5.69, 6.73, 7.68, 8.68, 8.03, 9.27, 13.76, 20.86, 19.55, 15.18, 9.36, 3.97, 4.0, 5.44, 3.07, 2.15, 2.07, 2.15, 2.51, 2.51, 2.51, 9.8, 9.8, 10.09, 10.09, 10.09, 10.09, 10.36, 10.36, 10.65, 10.65, 10.65, 10.88, 10.88, 10.88, 11.23, 11.23, 11.72, 11.72, 11.72, 11.72, 11.99, 11.99, 11.99, 11.99, 12.16, 11.99, 11.88, 11.88, 11.88, 11.88, 11.88, 11.88, 11.88, 11.88, 11.88, 11.5, 11.5, 11.5, 11.34, 11.22, 11.22, 11.22, 10.83, 11.08, 10.55, 10.8, 10.4, 10.4, 10.21, 10.21, 10.11, 9.71, 9.92, 9.51, 9.7, 9.7, 9.39, 8.96, 8.64, 8.77, 8.3, 7.52, 6.68, 5.81, 4.3, 2.53, 2.68, 2.53, 3.22, 3.11, 3.9, 3.72, 2.53, 1.6, 2.3, 4.01, 4.95, 5.77, 5.77, 6.79, 7.41, 7.41, 7.69, 12.56, 24.54, 21.9, 17.42, 12.05, 7.12, 5.77, 9.15, 10.7, 5.16, 1.9, 1.9, 2.21, 2.21, 2.21, 9.8, 9.8, 10.09, 10.09, 10.09, 10.09, 10.36, 10.36, 10.65, 10.65, 10.65, 10.65, 10.65, 10.88, 11.23, 11.23, 11.52, 11.52, 11.35, 11.35, 11.62, 11.99, 11.99, 11.99, 11.99, 11.99, 11.62, 11.88, 11.88, 11.88, 11.88, 11.88, 11.88, 11.88, 11.88, 11.5, 11.5, 11.5, 10.96, 11.22, 11.22, 10.83, 10.83, 10.94, 10.55, 10.55, 10.4, 10.4, 10.0, 10.21, 10.11, 9.71, 9.92, 9.92, 9.7, 9.7, 9.39, 8.96, 8.64, 8.64, 8.33, 7.97, 7.13, 5.81, 4.44, 2.5, 1.98, 1.8, 2.53, 3.35, 3.22, 4.29, 4.16, 2.4, 1.66, 2.6, 4.29, 5.06, 5.43, 6.18, 6.44, 7.44, 8.63, 21.4, 25.44, 22.79, 18.27, 14.74, 10.73, 7.92, 9.74, 12.88, 9.72, 2.91, 0.99, 1.9, 1.9, 1.9, 9.5, 9.5, 10.09, 10.09, 10.09, 10.09, 10.36, 10.36, 10.65, 10.65, 10.65, 10.65, 10.65, 10.88, 10.88, 11.23, 11.16, 11.16, 11.16, 11.35, 11.35, 11.62, 11.99, 11.99, 11.62, 11.62, 11.62, 11.62, 11.62, 11.62, 11.62, 11.62, 11.88, 11.88, 11.88, 11.5, 11.5, 11.34, 10.96, 11.22, 10.83, 10.83, 10.68, 10.55, 10.55, 10.55, 10.4, 10.4, 10.4, 10.21, 10.11, 10.11, 9.92, 9.92, 9.51, 9.63, 9.21, 8.96, 8.48, 8.64, 8.3, 7.97, 7.07, 5.81, 4.47, 2.91, 1.26, 0.57, 2.53, 3.58, 3.48, 3.48, 4.11, 3.22, 2.3, 2.4, 3.47, 5.06, 5.77, 5.82, 5.77, 7.07, 13.07, 20.47, 24.02, 21.01, 17.2, 13.39, 9.74, 6.8, 7.92, 10.38, 7.89, 2.68, 0.63, 1.26, 1.26, 1.26, 9.19, 9.19, 9.77, 10.09, 10.09, 10.09, 10.09, 10.36, 10.65, 10.65, 10.65, 10.65, 10.65, 10.65, 10.88, 10.88, 10.88, 11.16, 11.16, 11.16, 11.35, 11.35, 11.62, 11.62, 11.62, 11.62, 11.62, 11.62, 11.62, 11.62, 11.62, 11.62, 11.88, 11.88, 11.5, 11.5, 11.34, 10.96, 10.96, 11.22, 10.83, 10.68, 10.68, 10.55, 10.55, 10.55, 10.16, 10.4, 10.4, 10.0, 10.11, 10.11, 9.71, 9.92, 9.51, 9.63, 9.21, 8.96, 8.48, 8.64, 8.17, 7.87, 7.07, 6.23, 4.92, 3.53, 2.0, 1.26, 2.98, 3.6, 3.58, 3.58, 3.48, 3.35, 2.53, 2.68, 3.22, 4.01, 5.06, 5.43, 5.82, 6.82, 11.09, 17.38, 21.38, 19.51, 16.05, 11.96, 5.32, 2.15, 2.66, 4.4, 2.68, 1.49, 1.2, 1.7, 1.7, 1.7, 9.19, 9.19, 9.48, 9.77, 10.09, 10.09, 10.09, 10.09, 10.65, 10.65, 10.65, 10.65, 10.65, 10.65, 10.65, 10.88, 10.88, 11.16, 11.16, 11.16, 11.16, 11.35, 11.62, 11.62, 11.62, 11.62, 11.62, 11.62, 11.62, 11.62, 11.62, 11.62, 11.62, 11.88, 11.5, 11.5, 11.34, 10.96, 11.22, 10.83, 10.68, 10.68, 10.3, 10.55, 10.55, 10.55, 10.16, 10.4, 10.4, 10.4, 9.88, 10.11, 9.71, 9.92, 9.42, 9.42, 9.21, 8.79, 8.91, 8.48, 8.21, 7.74, 7.4, 6.23, 4.92, 4.02, 3.09, 2.63, 2.91, 3.6, 4.0, 4.22, 3.48, 2.53, 2.95, 2.84, 2.53, 4.19, 5.21, 5.15, 5.46, 7.35, 9.75, 13.99, 19.31, 20.47, 17.53, 14.03, 8.01, 1.86, 0.0, 0.63, 1.88, 3.22, 3.07, 3.49, 3.49, 3.49, 9.19, 9.19, 9.48, 9.48, 9.77, 10.09, 10.09, 10.09, 10.39, 10.65, 10.65, 10.65, 10.65, 10.65, 10.65, 10.65, 10.65, 10.88, 11.16, 11.16, 11.16, 11.16, 11.62, 11.62, 11.62, 11.62, 11.62, 11.62, 11.62, 11.62, 11.62, 11.62, 11.62, 11.5, 11.5, 11.34, 10.96, 10.96, 11.22, 10.83, 10.68, 10.68, 10.3, 10.3, 10.55, 10.55, 10.16, 10.16, 10.4, 10.4, 10.0, 10.11, 9.71, 9.71, 9.42, 9.42, 9.21, 8.72, 8.72, 8.48, 8.64, 8.17, 7.4, 6.6, 5.33, 4.47, 3.58, 3.58, 3.07, 3.47, 3.6, 3.58, 3.48, 2.95, 3.48, 3.48, 2.68, 3.58, 4.6, 4.84, 6.28, 7.63, 8.9, 11.6, 17.81, 21.4, 19.1, 16.86, 12.89, 7.15, 2.68, 2.5, 5.72, 7.67, 7.07, 7.07, 7.07, 7.07, 9.19, 9.19, 9.48, 9.48, 9.77, 9.77, 9.77, 9.77, 10.06, 10.06, 10.3, 10.65, 10.65, 10.65, 10.65, 10.65, 10.65, 10.65, 11.16, 11.16, 11.16, 11.16, 11.16, 11.62, 11.62, 11.62, 11.62, 11.62, 11.62, 11.62, 11.62, 11.62, 11.62, 11.5, 11.34, 11.34, 10.96, 10.96, 10.83, 10.68, 10.68, 10.3, 10.3, 10.3, 10.55, 10.55, 10.16, 10.16, 10.4, 10.4, 10.4, 10.11, 9.71, 9.71, 9.42, 9.01, 9.01, 8.72, 8.72, 8.3, 8.48, 8.17, 7.4, 6.94, 5.7, 4.88, 4.02, 4.02, 3.58, 3.47, 3.6, 3.22, 3.16, 2.68, 3.16, 3.48, 3.48, 3.58, 3.58, 5.75, 6.28, 7.89, 9.39, 11.6, 16.52, 21.01, 21.01, 18.31, 15.95, 13.12, 10.6, 8.93, 9.34, 10.01, 8.95, 8.0, 8.0, 8.0, 9.48, 9.48, 9.48, 9.48, 9.48, 9.77, 9.77, 9.77, 10.06, 10.06, 10.06, 10.3, 10.3, 10.3, 10.3, 10.65, 10.65, 10.65, 10.94, 10.94, 11.16, 11.16, 11.16, 11.44, 11.62, 11.62, 11.62, 11.62, 11.62, 11.62, 11.62, 11.62, 11.24, 11.34, 11.34, 10.96, 10.96, 10.96, 10.83, 10.68, 10.68, 10.3, 10.3, 10.3, 10.3, 10.55, 10.55, 10.16, 10.16, 10.4, 10.4, 9.88, 9.71, 9.71, 9.2, 9.01, 9.01, 9.21, 8.72, 8.3, 8.0, 8.0, 7.69, 6.79, 6.04, 5.24, 4.44, 4.47, 4.02, 3.53, 3.39, 3.6, 3.6, 3.22, 3.22, 3.58, 3.58, 3.83, 4.57, 5.51, 6.51, 8.01, 9.83, 12.49, 16.01, 20.05, 21.46, 19.21, 17.2, 15.76, 15.04, 13.84, 12.22, 11.37, 10.01, 9.33, 9.33, 9.33, 9.48, 9.48, 9.48, 9.48, 9.48, 9.77, 9.77, 9.77, 9.77, 10.06, 10.06, 10.06, 10.3, 10.3, 10.3, 10.3, 10.59, 10.59, 10.59, 10.59, 10.94, 11.16, 11.16, 11.16, 11.44, 11.62, 11.62, 11.62, 11.62, 11.62, 11.62, 11.62, 11.34, 11.34, 10.96, 10.96, 10.96, 10.96, 10.83, 10.68, 10.68, 10.3, 10.3, 10.3, 10.3, 10.55, 10.16, 10.16, 10.16, 10.4, 10.27, 9.88, 9.71, 9.71, 9.2, 9.42, 9.01, 9.01, 8.72, 8.3, 8.22, 8.0, 7.51, 7.21, 6.47, 5.7, 4.89, 4.44, 4.47, 4.02, 3.53, 3.9, 3.47, 3.82, 2.6, 3.6, 4.15, 4.57, 4.85, 5.31, 6.65, 8.49, 10.28, 12.52, 15.63, 19.22, 20.1, 18.52, 17.35, 17.39, 16.96, 15.54, 13.92, 12.3, 11.09, 10.37, 10.37, 10.37, 9.48, 9.48, 9.48, 9.48, 9.48, 9.48, 9.77, 9.77, 9.77, 10.06, 10.06, 10.06, 10.06, 10.3, 10.3, 10.3, 10.59, 10.59, 10.59, 10.59, 10.59, 10.59, 11.16, 11.16, 11.44, 11.44, 11.62, 11.62, 11.62, 11.62, 11.62, 11.07, 11.34, 11.34, 10.96, 10.96, 10.96, 10.96, 10.68, 10.68, 10.3, 10.3, 10.3, 10.3, 10.3, 10.3, 10.16, 10.16, 10.16, 10.4, 9.88, 9.88, 9.71, 9.71, 9.2, 9.42, 9.01, 8.91, 8.72, 8.72, 8.3, 8.0, 7.51, 7.21, 6.51, 6.14, 5.26, 4.89, 4.44, 4.02, 3.58, 3.58, 3.53, 4.24, 1.6, 3.9, 4.38, 4.82, 5.29, 5.81, 6.71, 8.49, 10.28, 12.52, 14.75, 17.81, 18.52, 17.73, 17.47, 17.22, 17.64, 16.29, 15.04, 13.42, 12.01, 10.25, 10.25, 10.25, 9.48, 9.48, 9.48, 9.48, 9.48, 9.48, 9.77, 9.77, 9.77, 10.06, 10.06, 10.06, 10.06, 10.3, 10.3, 10.3, 10.59, 10.59, 10.59, 10.59, 10.59, 10.59, 11.16, 11.16, 11.44, 11.44, 11.62, 11.62, 11.62, 11.62, 11.62, 11.07, 11.34, 11.34, 10.96, 10.96, 10.96, 10.96, 10.68, 10.68, 10.3, 10.3, 10.3, 10.3, 10.3, 10.3, 10.16, 10.16, 10.16, 10.4, 9.88, 9.88, 9.71, 9.71, 9.2, 9.42, 9.01, 8.91, 8.72, 8.72, 8.3, 8.0, 7.51, 7.21, 6.51, 6.14, 5.26, 4.89, 4.44, 4.02, 3.58, 3.58, 3.53, 4.24, 1.6, 3.9, 4.38, 4.82, 5.29, 5.81, 6.71, 8.05, 9.83, 11.62, 13.39, 15.93, 17.44, 17.47, 17.22, 17.22, 17.38, 17.38, 16.29, 14.68, 11.62, 9.49, 9.49, 9.49]}, {"header": {"dx": 0.06612293990616946, "dy": 0.0552356325346848, "nx": 98, "ny": 59, "la1": 35.046912555036876, "la2": 31.78801023549047, "lo1": -121.43107172385933, "lo2": -114.95102361305473, "refTime": "2026041703", "parameterCategory": 1, "parameterNumber": 3}, "data": [-13.38, -13.15, -12.56, -12.22, -11.58, -10.4, -9.77, -9.08, -8.19, -6.95, -6.28, -4.45, -2.3, -0.54, -0.76, 0.0, 0.0, 0.0, 0.0, 0.0, 0.0, 0.0, 0.0, -1.24, -3.58, -5.2, -5.05, -5.34, -5.16, -4.73, -4.87, -4.47, -4.02, -3.58, -3.51, -3.74, -3.32, -3.83, -3.74, -4.24, -4.4, -5.43, -6.18, -6.64, -6.71, -7.01, -6.21, -3.7, 0.0, 2.29, 3.69, 3.91, 3.8, 3.7, 3.88, 3.78, 3.85, 3.85, 3.85, 3.85, 3.95, 3.78, 3.95, 3.11, 3.11, 2.21, 2.31, 2.31, 2.31, 1.56, 0.79, 0.79, 0.79, 0.78, 0.75, 1.56, 0.76, 0.0, -0.77, -1.53, -1.52, -1.52, -2.41, -3.58, -4.43, -4.29, -4.03, -3.79, -3.2, -4.0, -4.71, -5.18, -5.52, -4.83, -4.03, -2.11, -0.7, 0.0, -13.15, -13.15, -12.56, -12.22, -11.63, -10.99, -10.09, -9.13, -8.19, -7.23, -6.28, -5.06, -2.07, -0.65, -1.3, -1.19, -0.71, 0.0, -0.71, -0.71, -0.8, -0.8, -0.71, -1.58, -2.68, -4.4, -4.84, -5.05, -5.34, -5.16, -4.85, -4.02, -3.58, -3.13, -3.07, -3.32, -3.07, -3.45, -3.45, -3.45, -4.84, -6.32, -7.64, -7.64, -7.73, -7.12, -4.0, 0.0, 2.41, 3.22, 3.2, 3.27, 3.32, 3.61, 3.61, 3.95, 3.85, 3.85, 3.85, 3.85, 3.85, 3.95, 3.95, 3.25, 3.11, 3.02, 2.41, 2.34, 2.28, 1.54, 0.74, 0.79, 0.82, 0.75, 0.79, 0.8, 0.0, 0.0, -0.77, -1.53, -1.52, -1.52, -2.41, -3.58, -4.43, -4.29, -4.03, -3.79, -3.2, -4.0, -4.71, -5.18, -5.52, -4.83, -4.03, -2.11, -0.7, 0.0, -13.15, -13.15, -12.56, -11.96, -11.63, -10.99, -10.69, -9.46, -8.5, -7.55, -6.62, -5.06, -2.07, -1.33, -0.7, -0.79, 0.0, -0.54, -0.71, -1.0, -1.49, -1.6, -2.0, -2.68, -3.04, -3.83, -3.84, -4.8, -4.8, -5.34, -5.59, -4.73, -3.51, -3.13, -3.07, -2.8, -3.45, -3.84, -3.48, -4.46, -5.72, -7.33, -7.64, -6.95, -5.38, -3.09, 0.0, 2.07, 2.53, 2.4, 2.35, 2.4, 2.31, 3.06, 3.44, 3.11, 3.02, 3.16, 3.16, 3.16, 3.02, 3.11, 3.25, 3.02, 3.02, 3.16, 3.19, 2.37, 1.55, 0.75, 0.77, 0.76, 0.79, 0.79, 0.0, 0.0, 0.0, 0.0, -1.42, -2.33, -1.5, -1.52, -2.53, -3.74, -4.66, -5.09, -5.0, -4.83, -3.91, -5.52, -6.2, -6.31, -5.64, -4.83, -2.88, -1.41, -0.76, 0.0, -13.15, -12.56, -12.56, -11.96, -11.63, -11.33, -10.4, -9.77, -8.82, -7.86, -6.92, -5.95, -4.01, -1.4, -0.76, -0.7, -0.61, -0.76, -1.49, -1.49, -1.49, -1.9, -2.97, -4.02, -4.15, -4.29, -3.84, -3.83, -3.83, -4.66, -5.59, -5.86, -5.86, -4.82, -3.58, -4.0, -3.93, -4.11, -5.43, -6.08, -6.68, -6.32, -4.65, -2.11, -0.81, 0.0, 1.55, 2.4, 2.11, 1.6, 1.98, 1.65, 2.31, 2.44, 2.44, 2.35, 2.28, 2.21, 2.31, 2.39, 3.11, 3.11, 3.25, 3.25, 3.16, 2.34, 2.37, 2.06, 2.06, 2.1, 1.58, 0.78, 0.78, 0.0, 0.0, -0.8, -1.5, -2.35, -1.54, -2.31, -2.17, -1.6, -2.21, -3.47, -4.41, -4.8, -4.74, -5.59, -6.14, -6.97, -6.97, -6.42, -5.3, -3.72, -2.3, -1.55, -0.67, 0.0, -12.56, -12.56, -12.56, -11.96, -11.36, -11.33, -10.4, -9.77, -9.13, -8.19, -7.23, -6.62, -4.74, -2.15, -1.6, -1.49, -1.33, -1.4, -1.4, -2.21, -2.98, -2.23, -1.58, -2.0, -3.47, -4.11, -4.11, -3.93, -3.6, -3.95, -4.41, -5.59, -6.79, -7.45, -7.6, -7.06, -6.36, -6.32, -6.7, -6.44, -5.06, -2.2, -0.7, 0.0, 0.7, 1.47, 1.47, 1.47, 1.47, 1.6, 1.41, 1.55, 1.49, 1.49, 1.58, 1.52, 1.52, 1.6, 2.28, 2.28, 2.47, 3.21, 3.11, 3.02, 2.34, 1.54, 1.54, 1.54, 2.34, 3.07, 3.16, 2.21, 2.11, 0.74, 0.0, -2.1, -3.11, -3.07, -2.33, -2.18, -2.12, -1.66, -2.53, -3.51, -4.47, -5.31, -6.44, -7.02, -7.82, -8.53, -7.18, -5.3, -4.01, -3.07, -2.2, -1.47, -0.7, 0.0, -12.56, -12.56, -12.27, -11.96, -11.36, -11.03, -10.4, -10.09, -9.13, -8.5, -7.55, -6.59, -4.65, -3.35, -2.41, -2.07, -2.07, -2.3, -3.07, -4.46, -6.16, -6.66, -5.81, -4.47, -3.47, -4.65, -5.24, -5.37, -5.4, -4.34, -3.58, -4.02, -5.31, -7.11, -7.15, -6.71, -5.59, -5.82, -5.77, -4.46, -3.22, -1.49, -0.7, 0.0, 0.0, 0.76, 1.35, 2.4, 1.6, 1.6, 0.78, 0.83, 0.83, 0.74, 0.79, 1.49, 1.49, 1.67, 2.47, 2.39, 2.47, 2.97, 2.49, 1.52, 1.48, 0.74, 1.56, 2.31, 3.02, 4.58, 3.91, 3.91, 3.91, 2.34, 0.0, -1.54, -3.07, -3.16, -2.41, -1.52, -1.52, -2.79, -3.49, -3.97, -5.36, -7.45, -8.95, -9.66, -9.62, -8.65, -6.06, -4.43, -3.72, -3.43, -2.98, -1.41, 0.0, 0.0, -12.56, -12.56, -11.67, -11.67, -11.36, -11.03, -10.4, -10.09, -9.46, -8.82, -7.86, -7.17, -5.37, -3.22, -4.75, -2.79, -3.35, -3.72, -4.43, -5.09, -5.72, -7.21, -7.6, -7.42, -6.99, -6.99, -7.37, -7.4, -6.8, -5.75, -4.34, -3.58, -3.13, -4.02, -4.47, -4.92, -5.31, -4.29, -2.84, -2.23, -2.12, -1.86, -1.49, -0.76, 0.0, 2.2, 2.88, 2.88, 2.47, 2.09, 1.14, 0.78, 1.41, 1.52, 1.55, 1.49, 2.31, 1.67, 1.54, 2.39, 1.54, 1.62, 0.79, 0.0, 0.76, 1.56, 3.11, 3.95, 4.01, 4.65, 3.91, 3.19, 2.14, 1.55, 0.76, 0.0, -1.52, -2.18, -1.63, -2.35, -2.26, -4.74, -6.07, -6.4, -7.89, -9.89, -11.09, -10.87, -9.3, -7.06, -5.69, -5.09, -4.81, -3.48, -1.84, -0.61, 0.0, 0.53, -12.56, -11.96, -11.67, -11.67, -11.36, -11.03, -10.72, -9.8, -9.77, -9.42, -8.45, -8.08, -5.69, -4.11, -5.44, -3.64, -3.72, -4.74, -4.43, -4.01, -4.01, -3.11, -3.72, -4.15, -3.51, -5.37, -6.8, -7.37, -6.32, -6.4, -6.36, -6.26, -5.36, -4.47, -4.02, -4.02, -3.13, -1.79, -1.2, -1.34, 0.0, 0.0, 0.0, 0.0, 1.49, 1.98, 3.22, 3.33, 3.0, 2.21, 1.6, 2.29, 2.35, 2.26, 2.31, 1.52, 1.52, 0.77, 0.78, 0.82, 0.0, 0.0, 0.0, 0.0, 2.35, 3.78, 4.8, 4.13, 3.16, 2.44, 0.8, 0.0, 0.0, -0.8, -0.78, 0.0, 0.0, -0.76, -1.45, -3.06, -4.2, -5.35, -6.35, -7.46, -9.18, -10.38, -11.06, -10.23, -8.24, -6.4, -5.6, -5.6, -3.83, -2.5, -0.71, 0.0, 0.54, 1.24, -11.96, -11.67, -11.67, -11.96, -11.36, -11.03, -10.43, -10.12, -9.77, -9.46, -9.08, -8.94, -8.0, -6.79, -6.11, -5.77, -5.77, -5.43, -4.46, -3.84, -2.95, -2.32, -2.54, -2.4, -2.07, -2.54, -2.6, -2.53, -5.24, -6.4, -7.08, -7.6, -7.15, -5.81, -3.58, -2.24, -1.2, -0.63, -0.89, 0.0, 0.0, 1.26, 1.26, 1.58, 1.24, 1.2, 0.98, 1.99, 3.11, 3.0, 3.35, 2.35, 2.26, 1.49, 0.8, 0.0, 0.0, 0.0, -0.78, -0.82, -1.5, -1.54, 0.0, 2.51, 4.71, 5.52, 4.68, 3.16, 0.79, 0.0, 0.0, -0.71, -1.52, -2.1, -1.39, -1.58, -0.75, -0.77, -1.6, -2.82, -3.06, -4.22, -5.72, -6.96, -9.05, -10.38, -10.38, -9.49, -7.33, -6.13, -4.93, -3.39, -2.6, -1.34, 0.0, 0.57, 1.24, 2.23, -11.67, -11.67, -11.67, -11.36, -11.36, -11.03, -10.43, -10.4, -9.8, -9.77, -9.72, -10.01, -9.02, -9.21, -8.06, -7.44, -7.81, -8.4, -8.22, -8.37, -8.79, -8.8, -7.81, -6.4, -6.52, -4.4, -2.24, -0.71, -2.53, -4.98, -3.47, -2.68, -2.24, -1.79, -1.79, -1.34, 0.0, 0.0, 0.0, 0.0, 0.65, 1.0, 1.24, 0.71, 0.54, 0.0, 0.0, 0.7, 2.2, 3.11, 3.0, 2.26, 1.55, 0.79, 0.0, 0.0, -0.76, -1.58, -2.44, -2.35, -2.31, 0.0, 2.32, 5.37, 6.24, 5.64, 4.92, 3.53, 1.44, 0.0, 0.0, -0.71, -0.74, -1.36, -1.43, -2.21, -2.97, -3.21, -2.89, -2.76, -2.06, -2.06, -4.43, -6.35, -8.4, -8.97, -9.4, -8.06, -6.64, -5.16, -3.07, -2.24, -1.79, -0.89, 0.89, 2.12, 2.4, 2.4, -11.67, -11.67, -11.38, -11.06, -11.36, -11.03, -10.75, -10.43, -10.4, -9.8, -10.09, -10.09, -10.06, -9.66, -8.38, -7.32, -7.44, -8.15, -8.43, -9.48, -11.09, -11.79, -12.3, -10.96, -10.38, -6.61, -2.6, -0.0, -0.65, -2.21, -1.86, -0.95, -0.0, -0.0, -0.63, -1.34, -0.63, 0.0, 0.0, 0.65, 1.4, 1.49, 0.71, 1.19, 0.0, 0.0, 0.76, 1.8, 2.41, 2.53, 2.47, 2.35, 2.35, 2.47, 1.7, 1.7, 1.55, 0.0, -1.7, -1.55, 0.87, 4.19, 7.03, 8.05, 8.68, 7.97, 8.65, 7.64, 5.3, 3.33, 2.2, 1.45, 0.67, -0.71, -1.4, -2.11, -3.61, -4.6, -4.83, -4.8, -3.37, -2.9, -2.98, -4.66, -4.87, -4.92, -6.22, -5.78, -4.87, -3.13, -2.6, -2.17, -1.26, -0.0, 2.4, 3.13, 3.07, 2.91, -11.67, -11.38, -11.06, -11.06, -11.36, -10.75, -10.75, -10.43, -10.72, -10.4, -10.12, -10.09, -10.09, -9.77, -7.93, -6.67, -5.41, -5.69, -6.32, -7.27, -7.3, -7.6, -7.23, -8.58, -6.32, -5.75, -3.72, 0.0, 0.0, -0.0, -0.63, 0.0, 0.45, 0.63, 0.0, 0.0, 0.0, 0.6, 1.26, 1.24, 1.4, 1.74, 1.6, 1.19, 0.0, 0.0, 1.0, 1.9, 1.9, 1.98, 2.76, 4.11, 4.46, 5.43, 5.43, 5.43, 6.4, 4.19, 0.0, 0.89, 5.81, 9.11, 10.01, 10.01, 10.43, 11.09, 12.39, 11.75, 9.65, 8.67, 7.61, 5.59, 2.82, 0.0, -2.4, -3.21, -4.5, -5.49, -6.51, -6.44, -4.71, -3.22, -2.98, -2.5, -1.2, -0.89, -1.79, -2.68, -2.68, -2.6, -2.6, -2.91, -0.65, 1.84, 3.07, 3.58, 3.53, 3.51, -11.96, -11.38, -11.06, -11.06, -11.06, -10.75, -10.75, -10.75, -10.43, -10.43, -10.4, -10.12, -9.8, -9.8, -8.87, -7.61, -6.08, -5.09, -5.34, -5.7, -5.67, -5.17, -3.99, -2.87, -1.63, -0.56, 0.0, 0.56, 1.09, 0.59, 0.0, 0.0, 0.8, 0.6, 0.6, 0.95, 0.95, 1.26, 1.58, 1.49, 1.49, 1.2, 1.2, 0.65, 0.0, 0.0, 0.95, 2.0, 2.84, 2.84, 3.22, 3.83, 4.8, 5.59, 6.14, 5.81, 6.36, 5.59, 0.87, 2.54, 8.46, 10.16, 10.25, 10.25, 10.45, 11.18, 12.22, 12.14, 11.37, 11.2, 10.29, 7.9, 4.71, 0.0, -3.0, -4.6, -5.64, -5.76, -6.64, -6.32, -4.29, -2.79, -3.38, -1.35, 0.76, 1.88, 0.71, -1.2, -2.24, -2.68, -3.51, -3.45, -0.0, 2.3, 3.45, 3.97, 3.58, 3.97, -11.36, -11.06, -11.06, -11.06, -10.76, -10.45, -10.45, -10.75, -10.75, -10.43, -10.43, -10.12, -10.12, -9.8, -9.19, -8.58, -7.61, -6.71, -6.33, -6.07, -6.29, -5.8, -4.58, -4.03, -2.3, -1.12, 0.0, 0.6, 0.58, 0.55, 0.0, 0.0, 0.0, 0.0, 0.71, 0.57, 1.26, 1.86, 1.58, 1.24, 0.71, 0.0, 0.0, 0.0, 0.0, 1.9, 1.34, 1.34, 2.4, 2.8, 3.2, 3.2, 3.2, 3.58, 2.68, 1.79, 0.45, 1.19, 0.0, 2.54, 7.89, 9.39, 9.21, 9.54, 8.19, 9.06, 9.4, 8.91, 9.75, 8.3, 9.0, 7.9, 5.59, 1.49, -0.65, -2.98, -1.8, -2.41, -2.41, -1.8, -1.6, -0.73, -0.72, 0.0, 0.7, 2.29, 1.47, 0.0, -2.12, -3.13, -4.02, -2.5, -0.0, 3.48, 4.46, 5.16, 4.47, 4.87, -11.36, -11.36, -11.06, -11.06, -10.76, -10.76, -10.45, -10.45, -10.75, -10.43, -10.43, -9.82, -10.12, -9.5, -9.19, -8.87, -8.87, -8.24, -7.33, -6.94, -6.5, -5.77, -5.25, -4.7, -3.47, -2.35, -1.15, 0.0, 0.56, 0.57, 0.59, 0.0, 0.0, 0.0, 0.0, 1.41, 3.16, 2.23, 2.73, 0.71, 0.0, 0.0, -1.19, -1.08, 0.0, 2.8, 4.02, 3.58, 2.68, 0.63, 1.26, 1.9, 0.89, 1.34, 0.0, -0.45, -0.89, -2.3, 0.0, 4.43, 7.15, 6.17, 6.23, 6.52, 6.8, 6.79, 7.21, 6.79, 5.75, 5.24, 5.69, 5.3, 2.98, 1.6, 0.89, 2.54, 2.6, 3.22, 2.41, 1.49, 1.55, 0.78, 0.0, 0.0, 0.0, 0.0, 0.0, 0.0, -1.6, -3.95, -3.58, -3.07, -0.0, 5.16, 6.98, 5.36, 5.31, 5.31, -11.36, -11.36, -11.36, -11.06, -10.76, -10.76, -10.76, -10.45, -10.45, -10.75, -10.43, -10.13, -9.82, -9.5, -9.5, -8.87, -8.59, -8.87, -8.22, -7.55, -6.88, -5.96, -5.25, -4.03, -3.5, -2.35, -1.19, -0.6, 0.0, 0.0, 0.0, 0.0, -0.58, -1.05, 0.0, 0.57, 2.6, 3.22, 2.98, 1.19, 0.0, 0.0, 0.0, 0.0, 0.0, 3.2, 4.02, 4.02, 2.8, 2.8, 1.4, 0.6, 0.8, 0.0, 0.0, -2.24, -3.2, -2.23, 0.0, 5.37, 6.07, 5.59, 4.43, 3.76, 3.79, 4.8, 4.85, 5.2, 5.01, 4.29, 3.35, 0.76, 0.0, 0.45, 1.34, 3.74, 6.8, 6.7, 5.69, 4.65, 4.83, 3.09, 1.49, 0.8, 0.0, -1.52, -1.52, -1.41, -1.6, -2.84, -3.74, 0.0, 6.66, 8.49, 8.49, 5.81, 5.67, 5.67, -11.36, -11.36, -11.36, -11.06, -10.76, -10.76, -10.76, -10.76, -10.45, -10.45, -10.13, -10.13, -9.82, -9.5, -9.5, -8.87, -8.87, -8.59, -8.2, -7.8, -7.1, -5.92, -5.21, -4.17, -2.92, -2.33, -1.76, -1.18, -0.57, -0.57, -0.59, -0.58, -1.72, -2.13, -0.76, 0.57, 1.58, 1.2, 0.85, 0.0, -1.19, 0.0, 0.0, 0.0, 0.0, 2.8, 4.02, 4.02, 3.82, 3.72, 2.48, 2.48, 2.73, 2.73, 1.55, 0.0, 0.0, 0.0, 3.2, 5.44, 5.44, 4.75, 3.68, 2.8, 3.16, 3.13, 4.02, 3.82, 3.48, 1.41, 0.0, -3.64, -2.23, 0.0, 1.6, 4.93, 8.05, 8.65, 7.59, 6.95, 6.24, 4.71, 2.4, 1.4, 0.0, -0.88, -2.2, -2.11, -2.29, -2.73, -1.94, 2.0, 7.28, 8.84, 8.36, 6.85, 5.72, 5.72, -11.36, -11.36, -11.36, -11.36, -11.06, -10.76, -10.76, -10.76, -10.13, -10.13, -9.84, -10.13, -9.82, -9.5, -9.5, -8.59, -8.59, -8.86, -8.22, -7.55, -6.4, -6.36, -5.38, -4.17, -2.92, -2.33, -2.31, -2.31, -1.74, -2.31, -2.31, -2.26, -2.32, -2.23, -1.73, 0.0, 0.0, 0.0, 0.0, -1.13, -0.85, 0.0, 0.0, 0.0, 0.0, 2.53, 3.82, 4.24, 3.72, 3.48, 2.73, 2.4, 3.22, 3.22, 3.49, 3.76, 2.32, 3.45, 4.47, 4.46, 4.46, 3.4, 3.2, 2.32, 2.84, 3.58, 3.58, 3.2, 0.0, -1.23, -2.21, -3.27, -1.52, 0.0, 2.4, 4.46, 6.06, 7.08, 6.09, 5.28, 4.26, 2.51, 1.45, 0.0, 0.0, 0.0, 0.0, -1.6, -0.78, 0.0, 1.63, 5.59, 7.28, 8.24, 8.14, 6.94, 6.9, 6.9, -11.36, -11.36, -11.36, -11.36, -11.06, -10.76, -10.76, -10.76, -10.13, -10.13, -9.84, -9.84, -9.82, -9.21, -9.5, -8.66, -8.87, -8.23, -7.59, -6.46, -6.6, -7.0, -7.03, -5.55, -3.96, -3.36, -3.44, -3.87, -4.0, -3.53, -3.5, -2.85, -2.34, -1.67, -1.75, -1.73, -1.65, -2.32, -2.29, -2.0, -1.49, -0.79, 0.0, 0.0, 1.3, 2.73, 3.48, 4.09, 3.48, 3.48, 2.4, 2.4, 3.49, 4.11, 4.43, 4.74, 4.19, 4.47, 4.75, 4.22, 3.4, 3.2, 2.26, 1.7, 4.15, 5.36, 5.31, 4.15, 1.66, 0.0, 0.0, 0.0, 1.56, 2.4, 3.2, 1.5, 0.0, 0.0, 0.0, 0.82, 0.0, -0.79, -0.74, -1.52, 0.0, 0.0, 1.41, 2.04, 0.82, 2.04, 3.79, 5.49, 6.44, 7.06, 7.35, 6.64, 5.09, 5.09, -11.36, -11.36, -11.36, -11.36, -10.76, -10.76, -10.76, -10.76, -10.13, -10.13, -10.13, -9.84, -9.5, -9.5, -9.5, -8.59, -8.24, -8.24, -6.97, -6.62, -6.79, -8.14, -8.81, -7.93, -7.01, -5.29, -4.65, -4.68, -4.65, -3.96, -2.93, -2.28, -1.74, -1.14, -1.65, -2.21, -2.23, -2.23, -1.71, -1.71, -1.09, -0.55, 0.0, 0.0, 1.09, 2.26, 2.6, 2.4, 2.4, 2.4, 2.4, 2.4, 4.11, 4.65, 3.84, 3.16, 4.75, 3.72, 4.01, 3.2, 2.49, 2.32, 2.16, 3.48, 5.75, 6.21, 6.21, 5.75, 4.29, 3.27, 2.41, 2.35, 3.22, 2.41, 0.0, -1.56, -4.75, -6.97, -3.85, -2.28, -1.6, -1.6, -1.52, -0.74, 0.0, 0.7, 2.88, 4.29, 2.72, 2.72, 2.11, 3.64, 5.43, 5.46, 5.31, 4.81, 4.12, 4.12, -11.36, -11.36, -11.36, -11.36, -10.45, -10.76, -10.45, -10.45, -10.13, -10.13, -10.13, -9.5, -9.5, -9.21, -9.21, -9.21, -8.59, -8.24, -7.96, -8.66, -8.46, -8.2, -8.85, -8.2, -7.53, -6.4, -5.28, -4.62, -3.96, -2.93, -2.3, -1.74, -1.18, -1.15, -1.18, -1.81, -2.23, -2.23, -2.37, -1.69, -1.12, -0.56, 0.0, 0.0, 0.59, 1.05, 1.1, 2.16, 2.6, 1.41, 1.3, 2.98, 4.29, 4.65, 5.01, 2.86, 3.79, 4.43, 4.75, 2.32, 2.4, 2.2, 3.72, 5.7, 6.26, 6.21, 5.31, 6.16, 6.08, 5.59, 6.05, 6.1, 5.56, 1.54, -2.36, -5.61, -10.78, -10.9, -8.85, -5.76, -3.11, -1.5, -0.75, 0.0, 0.8, 1.47, 2.88, 3.55, 3.44, 2.75, 0.81, 2.15, 4.74, 5.06, 4.11, 3.48, 3.49, 3.49, -11.36, -11.36, -11.03, -10.75, -10.45, -10.45, -10.45, -10.45, -10.13, -10.13, -10.13, -9.5, -9.5, -9.5, -9.5, -9.21, -8.87, -8.87, -9.5, -9.48, -8.18, -7.31, -6.92, -7.16, -7.1, -6.36, -5.18, -4.7, -3.5, -2.87, -2.26, -1.72, -1.74, -1.14, -1.16, -1.78, -1.71, -2.4, -2.23, -1.81, -1.69, -1.12, -1.18, -0.56, 0.0, 0.0, 0.0, 1.23, 1.14, 0.0, 1.3, 2.73, 4.8, 5.2, 4.65, 5.01, 4.46, 5.82, 5.69, 4.11, 1.9, 1.6, 4.02, 5.36, 6.21, 6.21, 6.02, 5.75, 6.7, 7.2, 8.15, 9.67, 7.54, 2.39, -5.59, -6.98, -10.15, -12.01, -12.05, -9.84, -6.2, -2.82, -0.75, 0.0, 0.78, 1.58, 1.52, 1.41, 0.71, 2.11, 1.36, 2.51, 4.74, 4.67, 3.64, 2.84, 2.5, 2.5, -11.36, -11.36, -11.36, -10.45, -10.45, -10.45, -10.45, -10.13, -10.13, -10.13, -10.13, -9.5, -9.5, -9.5, -9.5, -8.86, -8.86, -8.86, -9.21, -9.47, -8.4, -6.88, -6.5, -6.5, -6.46, -6.4, -5.88, -4.66, -4.13, -3.61, -2.85, -2.87, -2.26, -1.74, -1.69, -1.73, -1.67, -1.69, -1.71, -1.71, -1.71, -1.69, -1.14, -1.14, -0.57, 0.0, 0.0, 0.0, 0.0, 0.0, 1.08, 3.16, 4.4, 4.8, 5.2, 5.2, 4.15, 5.75, 6.4, 4.84, 3.47, 3.58, 4.47, 5.75, 6.21, 6.51, 6.51, 5.59, 5.59, 5.75, 6.14, 5.2, 0.77, 0.0, 0.0, -2.8, -6.22, -9.18, -11.3, -12.01, -9.84, -6.2, -3.95, -1.62, -0.78, 0.0, 0.0, 0.0, 0.0, 1.49, 2.12, 4.29, 4.94, 4.87, 3.55, 1.84, 2.8, 2.8, -11.36, -11.36, -11.36, -10.45, -10.45, -10.45, -10.13, -10.13, -10.13, -10.13, -10.13, -9.5, -9.5, -9.5, -9.22, -8.85, -8.85, -8.85, -9.48, -8.81, -8.16, -7.53, -6.43, -6.46, -6.22, -5.96, -5.92, -5.38, -4.66, -4.66, -4.17, -3.5, -2.87, -2.34, -2.28, -1.76, -1.71, -1.73, -1.67, -1.69, -1.69, -1.71, -1.16, -1.16, -1.09, -0.56, 0.0, 0.0, 0.0, 0.0, 0.0, 2.48, 3.72, 4.09, 4.4, 4.8, 3.04, 4.47, 5.7, 5.75, 4.8, 3.58, 4.02, 5.31, 5.75, 6.02, 5.75, 6.13, 4.8, 4.15, 2.84, -2.17, 0.0, 3.83, 5.18, 4.44, 1.23, -3.49, -7.64, -10.15, -11.05, -9.2, -7.09, -5.54, -3.95, -2.31, -1.49, -1.45, 0.0, 4.74, 5.21, 6.28, 6.17, 4.96, 3.4, 1.84, 2.4, 2.4, -11.36, -11.36, -11.06, -10.45, -10.45, -10.45, -10.13, -10.13, -10.13, -10.13, -9.79, -9.5, -9.5, -9.22, -9.22, -8.85, -8.85, -8.83, -8.81, -8.81, -8.43, -7.76, -7.1, -6.85, -6.4, -6.4, -5.73, -5.42, -5.21, -4.7, -4.03, -4.03, -3.53, -3.41, -2.9, -2.28, -2.3, -2.23, -2.25, -1.73, -1.75, -1.12, -1.14, -1.16, -1.18, -1.1, -1.12, -0.58, -0.58, 0.0, 0.0, 1.19, 2.84, 4.24, 4.24, 4.66, 4.47, 2.24, 2.24, 4.4, 4.11, 3.83, 3.47, 4.47, 5.75, 5.16, 4.8, 5.43, 5.21, 1.8, 0.0, -0.85, 1.11, 5.46, 7.11, 8.71, 7.3, 3.04, -1.05, -7.44, -10.26, -10.81, -9.83, -7.73, -5.52, -3.09, -2.35, -0.73, 1.88, 6.54, 8.3, 8.53, 7.46, 6.09, 4.96, 2.73, 2.15, 2.15, -11.36, -11.36, -11.06, -10.45, -10.45, -10.45, -10.13, -10.13, -10.13, -9.49, -9.22, -9.5, -9.22, -9.22, -9.22, -8.85, -9.12, -9.09, -8.81, -8.56, -8.18, -7.76, -7.76, -7.06, -7.06, -6.6, -5.92, -5.25, -5.25, -4.74, -4.74, -4.07, -4.07, -3.56, -3.44, -2.93, -2.82, -2.84, -2.33, -2.23, -1.71, -1.73, -1.18, -1.2, -1.16, -1.18, -1.2, -0.57, -0.58, -0.58, 0.0, 0.0, 1.27, 3.82, 4.24, 4.24, 4.02, 4.02, 4.47, 3.58, 3.79, 4.65, 4.66, 5.31, 5.59, 4.66, 4.22, 4.4, 4.11, 2.76, 0.82, 0.0, 0.82, 3.83, 7.08, 9.2, 9.32, 5.89, 0.79, -4.01, -9.2, -10.73, -10.47, -8.85, -5.52, -3.27, -2.9, 0.0, 3.84, 6.13, 6.08, 8.49, 7.6, 6.36, 5.77, 4.83, 3.64, 3.64, -11.36, -11.36, -10.76, -10.45, -10.45, -10.45, -10.13, -10.13, -10.13, -9.49, -9.22, -9.22, -9.22, -9.22, -8.85, -8.85, -8.83, -9.09, -8.81, -8.43, -8.18, -7.76, -7.76, -7.5, -7.06, -6.36, -6.36, -5.92, -5.42, -4.74, -4.58, -4.07, -4.1, -3.96, -3.6, -3.47, -3.34, -3.5, -2.96, -2.84, -2.87, -2.33, -2.35, -1.65, -1.12, -1.14, -1.09, -1.2, -1.12, -1.14, -1.16, -0.55, 0.0, 1.86, 2.68, 1.79, 3.58, 4.02, 1.7, 3.13, 3.72, 4.84, 5.81, 5.59, 6.23, 4.8, 3.83, 3.35, 3.63, 2.47, 0.78, 0.0, 0.0, 1.58, 4.65, 7.01, 5.41, 3.47, 1.58, -0.7, -5.59, -9.6, -10.35, -9.21, -7.27, -5.94, -3.0, 1.4, 4.84, 5.09, 4.43, 4.94, 7.01, 6.79, 7.11, 6.44, 5.86, 5.86, -11.36, -11.36, -10.45, -10.45, -10.45, -10.45, -10.13, -10.13, -10.13, -9.49, -9.22, -9.22, -9.22, -8.85, -8.85, -9.12, -8.83, -9.09, -8.83, -8.43, -8.18, -7.76, -7.76, -7.5, -7.06, -6.82, -6.36, -6.36, -5.88, -5.21, -4.74, -4.74, -4.07, -4.1, -3.96, -3.47, -3.47, -3.5, -3.5, -2.84, -2.84, -2.87, -2.23, -2.25, -1.73, -1.73, -1.75, -1.16, -1.1, -1.65, -1.7, -1.19, -0.59, 0.71, 2.12, 1.34, 3.13, 3.58, 3.13, 1.79, 3.95, 5.09, 6.02, 5.59, 4.8, 5.75, 3.16, 1.6, 0.0, 0.0, 0.78, 0.0, 0.0, -0.81, 0.0, 0.0, -0.79, 0.0, 0.0, 0.0, -1.88, -4.8, -6.79, -8.49, -7.61, -6.32, -1.41, 1.88, 3.79, 3.64, 3.72, 3.9, 5.51, 6.48, 6.95, 7.25, 6.57, 6.57, -10.76, -10.76, -10.45, -10.45, -10.45, -10.13, -10.13, -10.13, -10.13, -9.49, -9.22, -9.22, -8.85, -8.85, -9.12, -8.83, -8.83, -8.83, -8.83, -8.18, -8.18, -8.18, -7.5, -7.5, -7.06, -7.06, -6.6, -6.4, -5.92, -5.42, -5.42, -4.74, -4.74, -4.07, -4.1, -4.13, -3.47, -3.5, -3.5, -3.37, -3.53, -2.87, -2.9, -2.28, -1.52, -1.2, -1.75, -2.3, -2.3, -2.26, -2.32, -1.7, -1.23, 0.0, 1.26, 1.79, 2.68, 3.13, 2.54, 1.79, 3.13, 5.29, 5.75, 4.15, 3.74, 5.43, 5.46, 2.53, 0.0, -0.99, 0.81, 2.31, 1.6, -0.81, -4.68, -6.4, -6.28, -3.14, 0.0, 1.54, 0.78, -1.07, -3.16, -3.73, -2.79, -1.35, 0.73, 1.33, 1.41, 2.2, 2.73, 3.11, 4.28, 5.6, 6.2, 6.4, 6.2, 6.2, -10.76, -10.76, -10.45, -10.45, -10.45, -10.13, -10.13, -10.13, -10.13, -9.22, -9.22, -8.85, -8.85, -9.12, -8.83, -8.83, -8.83, -8.83, -8.43, -8.18, -8.18, -8.18, -8.16, -7.5, -7.5, -7.06, -6.85, -6.4, -5.92, -5.92, -5.42, -5.25, -4.74, -4.58, -4.62, -3.96, -3.99, -3.47, -3.5, -3.5, -3.37, -3.53, -3.39, -2.77, -2.83, -1.58, -1.67, -2.21, -2.86, -3.05, -2.73, -2.77, -1.88, -1.11, 0.0, 1.34, 1.34, 2.12, 1.6, 3.04, 2.68, 4.92, 3.51, 3.04, 4.66, 6.07, 8.3, 6.8, 3.2, 0.95, 1.98, 4.83, 5.4, 3.07, -1.55, -6.31, -7.01, -5.48, -1.51, 0.0, 1.56, 0.56, 0.0, -0.56, 0.0, 0.73, 1.32, 1.4, 0.69, 2.12, 3.0, 3.09, 3.61, 4.4, 4.77, 5.02, 5.02, 5.02, -10.76, -10.76, -10.45, -10.45, -10.45, -10.13, -10.13, -10.13, -9.79, -9.22, -9.22, -9.22, -9.12, -8.83, -8.83, -8.83, -8.83, -8.83, -8.18, -8.18, -8.18, -8.18, -7.92, -7.5, -7.5, -7.32, -7.1, -6.43, -5.73, -5.73, -5.92, -5.42, -5.25, -5.25, -4.77, -4.62, -4.13, -3.99, -4.17, -3.5, -3.37, -3.53, -3.53, -3.57, -3.45, -3.21, -3.15, -2.73, -2.73, -2.92, -3.4, -3.42, -3.45, -1.73, -0.51, 0.0, 0.89, 1.34, 2.12, 2.0, 3.04, 2.68, 3.13, 3.51, 3.95, 4.92, 6.65, 7.63, 7.07, 3.79, 4.22, 5.77, 6.2, 6.89, 3.86, -1.5, -6.21, -6.2, -4.68, -3.13, -0.71, 0.0, 1.16, 1.77, 2.22, 2.32, 2.32, 2.1, 2.15, 2.06, 2.12, 2.23, 2.17, 2.76, 3.53, 3.59, 3.59, 3.59, -10.45, -10.45, -10.45, -10.45, -10.13, -10.13, -10.13, -10.13, -9.5, -9.22, -9.22, -9.22, -9.12, -8.83, -8.83, -8.83, -8.83, -8.18, -8.18, -8.18, -8.18, -8.18, -7.76, -7.76, -7.76, -7.1, -7.1, -6.46, -5.67, -5.32, -5.73, -5.92, -5.25, -5.25, -5.28, -4.62, -4.62, -4.13, -3.99, -4.17, -4.02, -3.5, -3.53, -3.39, -4.08, -4.08, -3.45, -2.83, -2.89, -2.73, -2.92, -3.4, -3.42, -3.47, -2.86, 0.0, 0.0, 0.63, 1.2, 1.79, 1.34, 2.68, 4.85, 3.13, 3.13, 3.13, 2.68, 5.2, 4.74, 5.03, 5.06, 4.29, 4.96, 5.73, 5.51, 2.4, -2.28, -4.65, -5.3, -4.32, -2.11, 0.0, 1.41, 2.38, 2.85, 2.93, 2.95, 3.47, 3.04, 2.82, 2.01, 1.4, 1.32, 1.39, 2.76, 2.72, 2.81, 2.81, -10.45, -10.45, -10.45, -10.45, -10.13, -10.13, -10.13, -9.84, -9.5, -9.22, -9.22, -9.22, -9.12, -8.83, -8.83, -8.83, -8.83, -8.18, -8.18, -8.18, -8.18, -8.18, -7.76, -7.76, -7.53, -7.1, -6.88, -6.88, -6.46, -5.48, -5.36, -5.32, -5.28, -5.28, -5.28, -5.11, -4.62, -4.65, -4.65, -3.99, -4.17, -4.02, -4.02, -4.05, -4.05, -4.05, -3.89, -3.42, -3.49, -2.86, -2.86, -2.89, -3.4, -3.45, -3.49, -1.8, -0.61, 0.0, 0.0, 0.57, 1.86, 4.47, 5.81, 5.36, 4.02, 3.51, 3.04, 4.22, 4.11, 3.68, 4.95, 3.9, 1.55, 0.8, 2.31, 4.09, 3.12, 0.0, -1.27, -2.82, -1.41, 0.0, 0.71, 1.43, 1.75, 1.76, 2.85, 3.47, 3.04, 2.28, 1.52, 0.73, 0.0, 0.0, 0.0, 1.55, 1.41, 1.41, -10.45, -10.45, -10.45, -10.45, -10.13, -10.13, -10.13, -9.84, -9.5, -9.22, -9.22, -9.49, -8.83, -8.83, -8.83, -8.83, -8.18, -8.18, -8.18, -8.18, -8.18, -7.76, -7.76, -7.76, -7.53, -7.1, -6.88, -7.1, -7.1, -6.43, -5.8, -5.32, -5.32, -5.11, -5.11, -5.11, -5.32, -4.81, -4.65, -4.65, -4.48, -4.17, -4.02, -4.02, -4.05, -4.05, -4.05, -3.57, -3.61, -3.45, -3.49, -2.83, -2.86, -3.37, -2.96, -2.36, -1.19, -0.57, 0.0, 0.0, 2.84, 4.77, 5.81, 6.26, 5.75, 3.95, 4.15, 5.2, 5.01, 5.06, 5.69, 5.03, 2.21, 0.0, 0.0, 2.4, 6.31, 5.42, 2.81, 0.0, -1.41, -2.12, -1.39, -0.71, 0.0, 1.14, 1.68, 2.26, 1.42, 0.69, 0.0, 0.0, 0.0, -0.72, -0.68, 0.0, 0.0, 0.0, -10.45, -10.45, -10.45, -10.45, -10.13, -10.13, -10.13, -9.84, -9.5, -9.22, -9.22, -9.49, -8.83, -8.83, -8.83, -8.18, -8.18, -8.18, -8.18, -8.18, -8.18, -7.76, -7.76, -7.53, -7.53, -7.1, -7.1, -7.1, -7.1, -6.4, -5.96, -5.77, -5.32, -5.32, -5.32, -5.32, -5.14, -5.14, -5.14, -4.65, -4.65, -4.48, -4.17, -4.02, -4.02, -3.86, -4.05, -3.89, -4.08, -4.12, -3.45, -3.45, -2.8, -2.97, -2.86, -2.37, -1.73, -1.12, 0.0, 0.57, 1.84, 4.4, 5.7, 6.61, 6.61, 6.14, 4.57, 5.2, 5.21, 5.77, 5.37, 5.72, 3.61, 1.54, 0.0, 1.56, 5.42, 7.0, 7.06, 3.92, 0.0, -1.42, -2.12, -1.4, 0.0, 0.57, 1.1, 0.74, 0.0, 0.0, 0.0, 0.0, 0.0, -0.69, -0.69, -0.72, 0.0, 0.0, -10.45, -10.45, -10.45, -10.45, -10.13, -10.13, -9.84, -9.84, -9.5, -9.22, -9.22, -9.49, -8.83, -8.83, -8.83, -8.43, -8.18, -8.18, -8.18, -8.18, -7.76, -7.76, -7.76, -7.53, -7.53, -7.1, -7.1, -7.1, -7.1, -6.64, -6.43, -5.96, -5.77, -5.77, -5.32, -5.32, -5.14, -5.14, -5.14, -5.14, -4.65, -4.68, -4.68, -4.02, -4.02, -4.02, -4.02, -4.05, -3.89, -3.91, -4.12, -3.61, -3.61, -2.77, -2.93, -2.28, -1.75, -1.14, -0.55, 0.54, 1.76, 3.35, 4.8, 5.75, 5.59, 5.81, 3.74, 5.09, 5.2, 5.46, 5.69, 5.59, 5.43, 4.55, 2.28, 0.75, 2.39, 3.98, 4.74, 3.69, 2.14, 0.72, 0.0, 0.0, 0.67, 0.71, 0.73, 0.0, 0.0, 0.66, 0.59, 0.59, 0.78, 0.0, 0.0, 0.0, 0.0, 0.0, -10.75, -10.75, -10.45, -10.45, -10.13, -9.84, -9.84, -9.84, -9.5, -9.22, -9.49, -9.49, -8.83, -8.83, -8.83, -8.18, -8.18, -8.18, -8.18, -8.18, -7.76, -7.76, -7.53, -7.53, -7.53, -7.1, -7.1, -6.88, -6.88, -6.43, -6.43, -6.43, -5.96, -5.77, -5.77, -5.32, -5.14, -5.14, -5.36, -5.36, -5.17, -4.68, -4.51, -3.91, -3.89, -4.02, -4.02, -4.02, -4.05, -4.08, -3.91, -3.91, -3.42, -3.42, -2.77, -2.77, -2.28, -1.11, 0.0, 0.0, 1.16, 2.86, 4.8, 4.66, 5.59, 5.81, 5.09, 5.59, 5.2, 5.43, 5.43, 5.69, 6.69, 6.6, 5.56, 1.55, 0.0, -0.75, -0.77, 0.0, 0.73, 2.16, 2.84, 2.13, 2.1, 2.15, 1.39, 0.69, 0.7, 1.41, 1.41, 2.0, 1.41, 1.6, 1.56, 1.42, 0.73, 0.0, -10.75, -10.75, -10.75, -10.13, -9.84, -9.84, -9.84, -9.5, -9.5, -9.22, -9.49, -9.49, -8.83, -8.83, -8.57, -8.18, -8.18, -8.18, -8.18, -7.76, -7.76, -7.76, -7.53, -7.53, -7.53, -7.1, -7.1, -6.88, -6.88, -6.88, -6.43, -6.43, -6.43, -5.96, -5.77, -6.0, -5.32, -5.14, -5.14, -5.17, -5.17, -5.17, -5.2, -4.01, -3.42, -4.21, -4.51, -4.51, -4.72, -4.05, -4.08, -3.91, -3.91, -3.42, -2.77, -2.93, -2.28, -1.11, 0.0, 0.0, 1.2, 2.36, 3.76, 3.6, 5.09, 6.14, 6.61, 5.75, 5.75, 5.43, 6.21, 5.93, 6.01, 6.9, 8.71, 7.15, 1.54, -2.34, -4.95, -3.57, -1.4, 0.0, 1.38, 2.13, 2.76, 2.76, 2.1, 2.15, 2.12, 2.26, 1.98, 1.36, 1.4, 1.52, 0.75, 0.69, 0.0, 0.73, -10.75, -10.75, -10.43, -9.84, -9.84, -9.84, -9.84, -9.5, -9.5, -9.22, -9.22, -9.49, -9.12, -8.83, -8.57, -8.18, -8.18, -8.18, -8.18, -7.76, -7.76, -7.76, -7.53, -7.53, -7.53, -7.1, -6.88, -6.88, -6.88, -6.88, -6.43, -6.43, -6.43, -6.43, -5.77, -5.77, -6.0, -5.8, -5.14, -5.36, -5.17, -5.17, -5.2, -5.23, -4.68, -4.05, -4.51, -5.2, -4.54, -4.54, -4.08, -4.08, -3.91, -3.42, -2.93, -2.93, -2.28, -0.56, 0.0, 0.0, 1.18, 1.65, 1.73, 4.11, 5.2, 6.14, 5.59, 5.2, 5.34, 5.82, 5.82, 5.15, 5.03, 6.24, 9.66, 12.07, 9.76, 3.83, -0.73, -3.33, -2.72, -2.12, 0.0, 1.36, 2.14, 2.18, 2.13, 2.14, 2.21, 1.47, 0.69, 0.71, 0.0, 0.0, 0.0, 0.0, 0.0, 0.0, -10.43, -10.43, -10.13, -10.13, -10.13, -9.84, -9.5, -9.5, -9.5, -9.5, -9.22, -9.22, -8.85, -8.85, -8.85, -8.18, -8.18, -8.18, -7.76, -7.76, -7.76, -7.53, -7.53, -7.53, -7.1, -7.1, -6.88, -6.88, -7.13, -7.13, -6.88, -6.43, -6.43, -6.43, -6.22, -5.77, -5.77, -6.0, -5.8, -5.14, -5.36, -5.17, -5.2, -5.64, -5.2, -5.2, -4.76, -4.57, -4.57, -4.57, -4.57, -3.91, -3.91, -3.61, -2.93, -2.8, -2.28, -1.12, 0.0, 0.0, 0.59, 1.12, 1.23, 2.98, 5.2, 6.14, 5.09, 5.81, 5.51, 5.43, 5.46, 5.15, 4.74, 5.03, 7.27, 11.13, 13.0, 11.26, 7.8, 3.95, 0.59, 0.0, 1.32, 2.14, 2.09, 1.36, 0.73, 0.7, 0.72, 0.0, 0.0, 0.0, -0.73, -1.48, -1.61, -1.51, -1.55, -1.55, -10.13, -10.13, -10.13, -10.13, -10.13, -10.13, -9.21, -9.5, -9.5, -9.5, -9.22, -8.85, -8.85, -8.85, -8.85, -8.46, -8.18, -8.18, -8.18, -7.76, -7.76, -7.53, -7.53, -7.53, -7.1, -7.1, -6.88, -7.13, -7.13, -7.13, -7.13, -6.43, -6.43, -6.22, -6.22, -6.22, -6.22, -6.0, -5.8, -5.8, -5.83, -5.36, -5.17, -5.62, -5.83, -5.17, -4.54, -4.57, -4.6, -4.6, -4.12, -3.94, -3.94, -3.45, -2.8, -2.8, -1.75, -1.12, -0.57, 0.0, 0.0, 0.0, 0.54, 2.4, 4.8, 5.7, 5.81, 5.81, 5.09, 4.8, 4.81, 4.11, 4.02, 3.9, 4.71, 5.92, 7.82, 10.43, 11.79, 11.52, 9.5, 8.35, 7.2, 5.65, 4.35, 3.04, 1.42, 0.0, 0.0, -0.76, -1.4, -1.49, -2.18, -2.39, -2.31, -2.37, -2.37, -2.37, -10.13, -10.13, -10.13, -10.13, -9.82, -9.5, -9.5, -9.21, -9.21, -9.5, -9.22, -8.85, -8.85, -8.85, -8.85, -8.46, -8.18, -8.18, -8.18, -7.76, -7.53, -7.53, -7.53, -7.53, -7.1, -7.1, -6.88, -7.13, -7.13, -7.13, -7.13, -6.68, -6.46, -6.46, -6.43, -6.22, -6.46, -6.46, -5.8, -5.8, -5.8, -5.83, -5.83, -5.83, -5.83, -5.17, -4.51, -4.54, -4.08, -4.12, -3.94, -3.94, -3.49, -3.49, -2.97, -2.83, -2.19, -1.69, -1.16, -1.09, -0.59, 0.0, 0.0, 2.4, 4.8, 5.2, 5.2, 5.81, 4.8, 4.46, 4.54, 4.54, 4.43, 4.16, 4.03, 3.32, 4.81, 7.04, 10.43, 13.02, 13.94, 14.15, 11.95, 9.6, 7.3, 5.65, 3.78, 2.15, 0.0, -1.49, -1.45, -2.12, -2.9, -4.01, -3.82, -3.91, -3.91, -3.91, -9.82, -9.82, -9.82, -9.82, -9.5, -9.5, -9.5, -9.21, -9.21, -9.5, -8.85, -8.85, -8.85, -8.58, -8.58, -8.2, -8.46, -8.18, -8.18, -7.76, -7.53, -7.53, -7.53, -7.53, -7.1, -7.1, -6.88, -6.88, -7.13, -7.13, -7.13, -7.13, -6.46, -6.46, -6.68, -6.43, -6.46, -6.46, -6.46, -5.8, -5.8, -5.8, -5.83, -5.83, -5.17, -5.17, -4.98, -4.72, -4.54, -4.08, -3.91, -3.45, -3.3, -3.49, -2.83, -2.33, -2.33, -1.69, -1.71, -1.18, -0.56, -0.57, 0.0, 1.58, 4.65, 5.2, 5.2, 4.8, 4.8, 4.19, 5.01, 4.84, 4.81, 4.29, 4.03, 3.27, 3.85, 5.45, 7.8, 10.48, 13.22, 14.34, 12.09, 9.98, 8.1, 7.13, 5.81, 3.69, 0.74, -0.7, -1.07, -2.8, -4.12, -4.6, -4.5, -4.8, -4.8, -4.8, -9.82, -9.82, -9.82, -9.82, -9.5, -9.5, -9.5, -9.21, -9.21, -9.21, -9.14, -9.14, -8.86, -8.58, -8.58, -8.2, -8.46, -8.18, -8.18, -7.76, -7.53, -7.53, -7.53, -7.53, -7.1, -7.1, -6.88, -6.88, -7.13, -7.13, -7.13, -6.9, -6.9, -6.68, -6.68, -6.68, -6.46, -6.46, -6.46, -6.46, -6.25, -5.8, -5.83, -5.83, -5.17, -5.17, -5.2, -4.72, -4.54, -4.54, -4.08, -3.91, -3.45, -2.8, -2.97, -2.33, -2.21, -1.69, -1.71, -1.18, -0.56, 0.0, 0.0, 1.57, 3.16, 4.8, 4.8, 4.22, 4.46, 4.84, 4.84, 5.21, 4.81, 3.9, 3.2, 3.27, 4.07, 4.81, 6.4, 8.61, 11.73, 12.21, 10.8, 9.6, 8.62, 7.22, 4.88, 2.83, 0.78, 0.0, -2.13, -3.0, -4.16, -4.71, -4.83, -4.6, -4.6, -4.6, -9.82, -9.82, -9.82, -9.5, -9.21, -9.21, -9.5, -9.5, -9.21, -8.86, -8.86, -8.86, -8.86, -8.86, -8.86, -8.2, -8.2, -8.46, -8.18, -7.53, -7.53, -7.53, -7.53, -7.53, -7.1, -7.1, -7.1, -6.88, -7.13, -7.13, -7.13, -7.13, -7.13, -7.13, -7.13, -7.13, -6.46, -6.46, -6.46, -6.46, -6.25, -6.5, -5.83, -5.83, -5.17, -5.17, -5.2, -4.72, -4.54, -4.54, -4.08, -4.08, -3.42, -3.42, -2.28, -2.3, -2.33, -1.69, -1.16, -1.09, -0.59, 0.0, 0.0, 1.19, 2.86, 3.79, 4.8, 5.2, 5.6, 4.84, 4.84, 4.84, 4.43, 3.9, 4.16, 3.4, 4.0, 4.68, 6.21, 7.9, 9.49, 10.59, 11.58, 12.08, 10.6, 7.14, 3.51, 0.72, 0.0, -2.26, -2.29, -2.98, -3.79, -4.36, -5.0, -5.3, -5.3, -5.3, -10.12, -10.12, -10.12, -9.5, -9.21, -9.21, -9.21, -9.5, -9.21, -8.86, -8.86, -8.86, -8.86, -8.86, -8.86, -8.2, -8.2, -8.2, -8.2, -7.8, -7.8, -7.53, -7.53, -7.53, -7.1, -7.1, -7.1, -6.88, -7.13, -7.13, -7.13, -7.13, -7.13, -7.13, -7.13, -7.13, -6.9, -6.46, -6.46, -6.46, -6.25, -6.5, -5.83, -5.83, -5.62, -5.17, -5.2, -4.72, -4.54, -4.54, -4.08, -4.08, -4.08, -3.42, -2.77, -2.28, -2.3, -1.67, -1.14, -1.16, -0.58, 0.0, 0.0, 0.59, 2.48, 4.65, 5.2, 5.2, 5.01, 4.19, 3.16, 4.19, 4.43, 4.29, 4.16, 4.03, 3.91, 5.64, 7.36, 7.73, 8.18, 9.42, 12.88, 14.99, 12.86, 8.01, 4.23, 0.68, -0.69, -0.61, -2.21, -3.14, -4.12, -5.09, -5.06, -5.06, -5.06, -5.06, -10.12, -10.12, -9.5, -9.5, -9.5, -9.21, -9.21, -9.5, -9.21, -8.86, -8.86, -8.86, -8.86, -8.86, -8.86, -8.2, -8.2, -8.2, -8.2, -7.8, -7.8, -7.53, -7.53, -7.53, -7.53, -7.1, -7.1, -7.13, -7.13, -7.13, -7.13, -7.13, -7.13, -7.13, -7.13, -7.13, -6.9, -6.9, -6.9, -6.46, -6.25, -6.5, -6.27, -5.83, -5.62, -5.4, -5.2, -5.2, -4.54, -4.54, -4.76, -4.08, -4.08, -3.57, -2.9, -2.77, -2.28, -2.17, -1.67, -1.14, -1.07, -0.58, 0.0, 0.53, 2.22, 3.84, 5.2, 4.84, 4.54, 4.19, 3.16, 2.21, 3.79, 4.01, 4.29, 4.95, 4.83, 5.89, 6.42, 7.82, 6.97, 8.66, 11.92, 13.78, 12.08, 8.01, 1.4, 0.0, 0.0, 0.54, -0.71, -3.07, -3.83, -5.09, -4.46, -4.46, -4.46, -4.46, -9.8, -9.8, -9.5, -9.5, -9.5, -9.21, -9.21, -9.21, -9.16, -8.86, -8.86, -8.59, -8.59, -8.86, -8.86, -8.58, -8.2, -8.2, -8.2, -7.8, -7.8, -7.8, -7.53, -7.53, -7.53, -7.53, -7.1, -7.13, -7.13, -7.13, -7.13, -7.13, -7.13, -7.13, -7.13, -6.9, -6.9, -6.9, -6.9, -6.46, -6.5, -6.5, -6.27, -5.83, -5.62, -5.4, -5.2, -5.2, -4.54, -4.54, -4.76, -4.08, -4.08, -3.42, -3.42, -2.77, -2.93, -2.28, -2.3, -1.67, -1.14, -1.16, -0.56, 0.0, 1.76, 3.48, 4.6, 4.46, 4.81, 4.84, 4.19, 3.16, 1.9, 2.68, 4.11, 5.06, 5.69, 5.69, 5.89, 6.14, 6.31, 6.42, 7.73, 9.17, 8.02, 2.17, 0.72, 0.67, 0.66, 2.0, 2.04, -0.61, -2.86, -3.45, -2.86, -3.14, -3.14, -3.14, -9.8, -9.8, -9.5, -9.5, -9.5, -9.5, -9.21, -9.21, -8.87, -8.87, -8.87, -8.59, -8.59, -8.59, -8.86, -8.86, -8.2, -8.2, -8.2, -8.2, -7.8, -7.8, -7.8, -7.8, -7.53, -7.8, -7.13, -7.13, -7.13, -7.13, -7.13, -7.13, -7.13, -7.13, -7.13, -6.9, -6.9, -6.9, -7.16, -6.5, -6.5, -6.5, -6.27, -5.83, -5.86, -5.4, -5.2, -5.2, -4.54, -4.54, -4.76, -4.57, -4.08, -3.91, -3.42, -3.42, -2.93, -2.8, -2.3, -1.75, -1.78, -1.07, -0.56, 0.0, 1.23, 2.53, 3.58, 4.22, 4.84, 5.43, 5.46, 4.46, 4.22, 3.2, 3.83, 4.81, 5.77, 4.95, 4.95, 5.1, 5.76, 5.76, 5.38, 4.71, 1.49, 0.0, 0.73, 0.71, 0.71, 0.72, 2.11, 0.71, -1.47, -1.9, -1.9, -2.21, -2.21, -2.21, -9.8, -9.8, -9.5, -9.5, -9.5, -9.5, -9.21, -9.21, -8.87, -8.87, -8.87, -8.87, -8.87, -8.59, -8.86, -8.86, -8.49, -8.49, -7.95, -7.95, -7.55, -7.8, -7.8, -7.8, -7.8, -7.8, -7.55, -7.13, -7.13, -7.13, -7.13, -7.13, -7.13, -7.13, -7.13, -6.9, -6.9, -6.9, -6.92, -6.5, -6.5, -6.27, -6.27, -6.08, -5.86, -5.86, -5.2, -5.2, -5.0, -4.54, -4.76, -4.57, -4.08, -4.08, -3.42, -3.42, -2.93, -2.8, -2.3, -2.3, -1.67, -1.14, -0.59, 0.0, 0.55, 1.88, 2.98, 3.6, 4.22, 4.19, 4.84, 5.15, 5.82, 4.8, 4.15, 5.2, 5.15, 5.06, 4.65, 4.42, 4.83, 4.96, 4.71, 1.59, 1.5, 0.74, 1.41, 0.7, 0.0, -1.44, -1.39, -1.43, -1.5, -1.16, -1.49, -1.9, -1.9, -1.9, -10.09, -10.09, -9.5, -9.5, -9.5, -9.5, -9.21, -9.21, -8.87, -8.87, -8.87, -8.87, -8.87, -8.59, -8.59, -8.86, -8.22, -8.22, -8.22, -7.95, -7.95, -7.55, -7.8, -7.8, -7.55, -7.55, -7.55, -7.55, -7.55, -7.55, -7.55, -7.55, -7.13, -7.13, -7.13, -6.9, -6.9, -7.16, -6.92, -6.5, -6.27, -6.27, -6.53, -5.86, -5.86, -5.86, -5.2, -5.2, -5.2, -4.54, -4.76, -4.76, -4.08, -4.08, -3.91, -3.61, -3.45, -2.8, -2.83, -2.3, -1.78, -1.14, -1.09, 0.0, 0.0, 1.16, 1.26, 1.7, 2.53, 2.68, 3.48, 3.48, 4.11, 4.84, 3.83, 4.8, 5.21, 5.06, 4.95, 4.16, 4.95, 4.71, 4.61, 4.72, 5.25, 4.35, 2.87, 0.7, -1.39, -3.4, -5.04, -4.15, -1.58, 0.0, -0.63, -1.26, -1.26, -1.26, -9.77, -9.77, -9.19, -9.5, -9.5, -9.5, -9.5, -9.21, -8.87, -8.87, -8.87, -8.87, -8.87, -8.87, -8.59, -8.59, -8.59, -8.22, -8.22, -8.22, -7.95, -7.95, -7.55, -7.55, -7.55, -7.55, -7.55, -7.55, -7.55, -7.55, -7.55, -7.55, -7.13, -7.13, -6.9, -6.9, -7.16, -6.92, -6.92, -6.5, -6.27, -6.53, -6.53, -5.86, -5.86, -5.86, -5.64, -5.2, -5.2, -5.0, -4.76, -4.76, -4.57, -4.08, -3.91, -3.61, -3.45, -2.8, -2.83, -2.3, -2.33, -1.69, -1.09, -0.57, 0.0, 0.59, 1.0, 1.26, 1.98, 1.8, 2.68, 2.68, 3.48, 4.19, 4.22, 3.58, 4.84, 4.81, 5.06, 4.65, 4.16, 4.26, 4.75, 7.11, 7.92, 6.5, 4.01, 1.6, -0.67, -2.86, -4.66, -2.2, 0.0, 0.99, 0.6, 0.57, 0.57, 0.57, -9.77, -9.77, -9.48, -9.19, -9.5, -9.5, -9.5, -9.5, -8.87, -8.87, -8.87, -8.87, -8.87, -8.87, -8.87, -8.59, -8.59, -8.22, -8.22, -8.22, -8.22, -7.95, -7.55, -7.55, -7.55, -7.55, -7.55, -7.55, -7.55, -7.55, -7.55, -7.55, -7.55, -7.13, -6.9, -6.9, -7.16, -6.92, -6.5, -6.27, -6.53, -6.53, -6.29, -5.86, -5.86, -5.86, -5.64, -5.2, -5.2, -5.2, -5.23, -4.76, -4.57, -4.08, -4.12, -4.12, -3.45, -3.3, -2.97, -2.83, -2.19, -2.21, -1.71, -0.57, 0.0, 0.0, 0.51, 0.53, 1.16, 1.8, 2.0, 2.53, 3.48, 4.22, 3.93, 2.84, 2.53, 3.35, 3.47, 4.29, 3.9, 3.27, 3.25, 4.66, 5.63, 4.72, 3.51, 2.81, 0.73, -1.24, -1.79, 0.63, 2.5, 2.41, 1.84, 2.79, 2.79, 2.79, -9.77, -9.77, -9.48, -9.48, -9.19, -9.5, -9.5, -9.5, -9.17, -8.87, -8.87, -8.87, -8.87, -8.87, -8.87, -8.87, -8.87, -8.59, -8.22, -8.22, -8.22, -8.22, -7.55, -7.55, -7.55, -7.55, -7.55, -7.55, -7.55, -7.55, -7.55, -7.55, -7.55, -6.9, -6.9, -7.16, -6.92, -6.92, -6.5, -6.27, -6.53, -6.53, -6.29, -6.29, -5.86, -5.86, -5.64, -5.64, -5.2, -5.2, -5.0, -4.76, -4.57, -4.57, -4.12, -4.12, -3.45, -3.49, -3.49, -2.83, -2.3, -2.33, -1.71, -1.2, -0.59, 0.0, 0.0, 0.0, 0.61, 0.87, 1.8, 2.68, 3.48, 3.93, 3.48, 3.48, 3.58, 2.68, 2.76, 3.22, 2.35, 2.54, 0.81, 0.77, 1.55, 1.59, 2.12, 2.11, 1.36, 0.0, 0.0, 1.88, 4.29, 4.6, 4.71, 4.71, 4.71, 4.71, -9.77, -9.77, -9.48, -9.48, -9.19, -9.19, -9.19, -9.19, -8.87, -8.87, -8.59, -8.87, -8.87, -8.87, -8.87, -8.87, -8.87, -8.87, -8.22, -8.22, -8.22, -8.22, -8.22, -7.55, -7.55, -7.55, -7.55, -7.55, -7.55, -7.55, -7.55, -7.55, -7.55, -6.9, -7.16, -7.16, -6.92, -6.92, -6.27, -6.53, -6.53, -6.29, -6.29, -6.29, -5.86, -5.86, -5.64, -5.64, -5.2, -5.2, -5.2, -4.76, -4.57, -4.57, -4.12, -3.94, -3.94, -3.49, -3.49, -3.32, -2.83, -2.33, -1.71, -1.73, -1.14, -0.61, 0.0, 0.0, 0.0, 0.87, 1.8, 2.41, 3.16, 3.58, 3.16, 3.48, 3.48, 2.68, 2.68, 2.47, 2.35, 1.58, 0.0, -0.77, -0.79, 0.0, 0.0, 0.7, 2.17, 2.76, 3.53, 4.12, 4.31, 3.85, 4.07, 4.0, 4.0, 4.0, -9.48, -9.48, -9.48, -9.48, -9.48, -9.19, -9.19, -9.19, -8.87, -8.87, -8.87, -8.59, -8.59, -8.59, -8.59, -8.87, -8.87, -8.87, -8.51, -8.51, -8.22, -8.22, -8.22, -7.83, -7.55, -7.55, -7.55, -7.55, -7.55, -7.55, -7.55, -7.55, -7.31, -7.16, -7.16, -6.92, -6.92, -6.92, -6.27, -6.53, -6.53, -6.29, -6.29, -6.29, -6.29, -5.86, -5.86, -5.64, -5.64, -5.2, -5.2, -5.23, -4.57, -4.57, -4.6, -3.94, -3.94, -3.45, -3.49, -3.32, -2.86, -2.86, -2.37, -2.26, -1.65, -1.16, -0.55, 0.0, 0.0, 0.59, 1.13, 1.8, 1.8, 2.41, 2.41, 2.68, 2.68, 2.3, 1.83, 1.84, 1.63, 0.8, 0.0, -0.78, -1.6, -1.6, 0.0, 0.71, 2.87, 5.01, 5.73, 5.1, 4.31, 4.06, 3.85, 3.11, 3.11, 3.11, -9.48, -9.48, -9.48, -9.48, -9.48, -9.19, -9.19, -9.19, -9.19, -8.87, -8.87, -8.87, -8.59, -8.59, -8.59, -8.59, -8.23, -8.23, -8.23, -8.23, -8.51, -8.22, -8.22, -8.22, -7.83, -7.55, -7.55, -7.55, -7.55, -7.55, -7.55, -7.55, -7.16, -7.16, -6.92, -6.92, -6.92, -6.92, -6.27, -6.53, -6.53, -6.29, -6.29, -6.29, -6.29, -5.86, -5.64, -5.64, -5.64, -5.2, -5.44, -5.23, -4.57, -4.57, -4.6, -4.12, -3.94, -3.94, -3.49, -3.32, -3.52, -2.86, -2.89, -2.4, -1.76, -1.14, -0.54, -0.55, 0.0, 0.0, 0.59, 0.98, 0.87, 1.27, 1.74, 1.8, 1.66, 1.83, 0.81, 0.76, 0.83, 0.0, 0.0, 0.0, -0.78, 0.0, 0.8, 3.09, 4.34, 5.8, 5.65, 5.65, 4.87, 4.1, 3.47, 2.76, 2.76, 2.76, -9.48, -9.48, -9.48, -9.48, -9.48, -9.48, -9.19, -9.19, -9.19, -8.87, -8.87, -8.87, -8.87, -8.59, -8.59, -8.59, -8.23, -8.23, -8.23, -8.23, -8.23, -8.23, -8.22, -8.22, -7.83, -7.83, -7.55, -7.55, -7.55, -7.55, -7.55, -7.57, -7.16, -7.16, -6.92, -6.92, -6.92, -6.92, -6.53, -6.53, -6.29, -6.29, -6.29, -6.29, -6.29, -6.29, -5.64, -5.64, -5.64, -5.2, -5.23, -5.23, -4.57, -4.57, -4.6, -4.12, -3.94, -4.16, -3.49, -3.49, -3.32, -2.86, -2.89, -2.4, -1.63, -1.23, -1.05, -0.54, -0.55, 0.0, 0.0, 0.0, 0.59, 1.41, 0.8, 0.98, 0.88, 0.96, 0.88, 0.0, 0.0, 0.0, 0.0, 0.0, 0.0, 1.55, 3.09, 4.63, 5.56, 6.26, 6.42, 6.21, 5.73, 4.95, 3.53, 3.16, 3.16, 3.16, -9.48, -9.48, -9.48, -9.48, -9.48, -9.48, -9.19, -9.19, -9.19, -8.87, -8.87, -8.87, -8.87, -8.59, -8.59, -8.59, -8.23, -8.23, -8.23, -8.23, -8.23, -8.23, -8.22, -8.22, -7.83, -7.83, -7.55, -7.55, -7.55, -7.55, -7.55, -7.57, -7.16, -7.16, -6.92, -6.92, -6.92, -6.92, -6.53, -6.53, -6.29, -6.29, -6.29, -6.29, -6.29, -6.29, -5.64, -5.64, -5.64, -5.2, -5.23, -5.23, -4.57, -4.57, -4.6, -4.12, -3.94, -4.16, -3.49, -3.49, -3.32, -2.86, -2.89, -2.4, -1.63, -1.23, -1.05, -0.54, -0.55, 0.0, 0.0, 0.0, 0.59, 1.41, 0.8, 0.98, 0.88, 0.96, 0.88, 0.0, 0.0, 0.0, 0.0, 0.0, 0.79, 2.28, 3.96, 5.56, 6.26, 6.26, 7.11, 7.11, 6.21, 5.41, 4.65, 3.95, 3.95, 3.95]}]